DL9MFL-6 Weather Reports


time (UTC)temp
F
wind
direction
speed
knots
gust
knots
rain 1hr
in
rain 24hr
in
rain mn
in
humidity
%
barometer
mb
20260507060857 49 202 7.0 13.9 0.00 0.01 0.00 82 1010.4
20260507060758 49 251 7.0 13.9 0.00 0.01 0.00 82 1010.4
20260507060656 49 249 7.0 13.9 0.00 0.01 0.00 82 1010.4
20260507060551 49 239 7.0 13.9 0.00 0.01 0.00 82 1010.5
20260507060502 49 269 7.0 13.9 0.00 0.01 0.00 82 1010.5
20260507060451 49 266 6.1 13.9 0.00 0.01 0.00 82 1010.5
20260507060351 49 247 6.1 13.9 0.00 0.01 0.00 82 1010.4
20260507060251 49 254 6.1 16.5 0.00 0.01 0.00 82 1010.2
20260507060151 49 240 6.1 16.5 0.00 0.01 0.00 82 1010.2
20260507060047 49 242 6.1 16.5 0.00 0.01 0.00 82 1010.2
20260507060001 49 244 6.1 16.5 0.00 0.01 0.00 82 1010.2
20260507055947 49 272 7.0 16.5 0.00 0.01 0.00 82 1010.1
20260507055848 49 277 6.1 16.5 0.00 0.01 0.00 82 1010.1
20260507055746 49 243 6.1 16.5 0.00 0.01 0.00 82 1010.1
20260507055644 49 260 6.1 16.5 0.00 0.01 0.00 82 1010.1
20260507055539 49 260 6.1 16.5 0.00 0.01 0.00 82 1010.1
20260507055500 49 229 6.1 16.5 0.00 0.01 0.00 82 1010.1
20260507055439 49 228 6.1 16.5 0.00 0.01 0.00 82 1010.1
20260507055339 49 223 6.1 16.5 0.00 0.01 0.00 82 1010.4
20260507055240 49 263 6.1 12.2 0.00 0.01 0.00 82 1010.1
20260507055138 49 289 6.1 12.2 0.00 0.01 0.00 82 1010.0
20260507055039 49 238 6.1 12.2 0.00 0.01 0.00 82 1010.2
20260507055003 49 275 6.1 12.2 0.00 0.01 0.00 82 1010.2
20260507054939 49 266 6.1 12.2 0.00 0.01 0.00 82 1010.1
20260507054839 49 210 6.1 12.2 0.00 0.01 0.00 82 1010.1
20260507054739 49 250 6.1 12.2 0.00 0.01 0.00 82 1010.0
20260507054639 49 242 7.0 12.2 0.00 0.01 0.00 83 1010.0
20260507054539 49 261 7.0 13.0 0.00 0.01 0.00 83 1010.0
20260507054502 49 240 7.0 13.0 0.00 0.01 0.00 83 1010.0
20260507054439 49 220 7.0 13.0 0.00 0.01 0.00 83 1010.1
20260507054339 49 234 7.0 13.0 0.00 0.01 0.00 82 1010.1
20260507054237 49 261 7.0 13.0 0.00 0.01 0.00 82 1010.1
20260507054137 49 282 7.0 13.0 0.00 0.01 0.00 82 1010.0
20260507054037 49 215 6.1 13.0 0.00 0.01 0.00 82 1010.0
20260507054001 49 238 6.1 13.0 0.00 0.01 0.00 82 1010.0
20260507053937 49 299 6.1 13.0 0.00 0.01 0.00 83 1010.0
20260507053838 49 252 6.1 13.0 0.00 0.01 0.00 83 1009.9
20260507053637 49 246 5.2 13.0 0.00 0.01 0.00 83 1010.0
20260507053537 49 257 5.2 11.3 0.00 0.01 0.00 83 1010.0
20260507053500 49 286 5.2 11.3 0.00 0.01 0.00 83 1010.0
20260507053436 49 265 5.2 11.3 0.00 0.01 0.00 83 1009.9
20260507053331 49 274 4.3 11.3 0.00 0.01 0.00 83 1009.9
20260507053231 49 232 4.3 10.4 0.00 0.01 0.00 83 1009.8
20260507053131 49 269 4.3 10.4 0.00 0.01 0.00 83 1009.8
20260507053031 49 255 5.2 10.4 0.00 0.01 0.00 83 1009.9
20260507053001 49 263 5.2 10.4 0.00 0.01 0.00 83 1009.9
20260507052930 48 227 4.3 10.4 0.00 0.01 0.00 83 1009.8
20260507052831 48 238 4.3 10.4 0.00 0.01 0.00 83 1009.8
20260507052731 48 234 4.3 10.4 0.00 0.01 0.00 83 1009.8
20260507052631 48 266 4.3 10.4 0.00 0.01 0.00 83 1009.8
20260507052531 48 229 4.3 10.4 0.00 0.01 0.00 83 1009.8
20260507052501 48 242 4.3 10.4 0.00 0.01 0.00 83 1009.8
20260507052431 48 255 4.3 10.4 0.00 0.01 0.00 83 1009.7
20260507052331 48 250 4.3 10.4 0.00 0.01 0.00 83 1009.7
20260507052231 48 228 4.3 8.7 0.00 0.01 0.00 83 1009.8
20260507052129 48 231 4.3 8.7 0.00 0.01 0.00 83 1009.7
20260507052029 48 262 4.3 8.7 0.00 0.01 0.00 83 1009.7
20260507052001 48 237 4.3 8.7 0.00 0.01 0.00 83 1009.7
20260507051929 48 263 4.3 8.7 0.00 0.01 0.00 83 1009.7
20260507051829 48 263 4.3 8.7 0.00 0.01 0.00 83 1009.7
20260507051729 48 230 4.3 8.7 0.00 0.01 0.00 83 1009.7
20260507051629 48 270 4.3 8.7 0.00 0.01 0.00 83 1009.7
20260507051529 48 234 4.3 8.7 0.00 0.01 0.00 83 1009.7
20260507051501 48 257 4.3 8.7 0.00 0.01 0.00 83 1009.7
20260507051429 48 252 4.3 8.7 0.00 0.01 0.00 83 1009.7
20260507051329 48 243 3.5 7.8 0.00 0.01 0.00 83 1009.6
20260507051129 48 267 3.5 7.8 0.00 0.01 0.00 83 1009.7
20260507051029 48 223 3.5 7.8 0.00 0.01 0.00 84 1009.7
20260507051003 48 256 3.5 7.8 0.00 0.01 0.00 84 1009.7
20260507050929 48 283 4.3 7.8 0.00 0.01 0.00 84 1009.6
20260507050829 48 219 4.3 7.8 0.00 0.01 0.00 84 1009.7
20260507050728 48 260 4.3 7.8 0.00 0.01 0.00 84 1009.6
20260507050629 48 246 4.3 7.8 0.00 0.01 0.00 83 1009.7
20260507050529 48 267 4.3 7.8 0.00 0.01 0.00 84 1009.6
20260507050501 48 240 4.3 7.8 0.00 0.01 0.00 84 1009.6
20260507050429 48 241 3.5 7.8 0.00 0.01 0.00 83 1009.6
20260507050328 48 248 4.3 7.8 0.00 0.01 0.00 84 1009.6
20260507050228 48 229 4.3 7.8 0.00 0.01 0.00 84 1009.6
20260507050129 48 259 4.3 7.8 0.00 0.01 0.00 84 1009.6
20260507050029 48 240 3.5 7.8 0.00 0.01 0.00 84 1009.6
20260507050000 47 250 3.5 7.8 0.00 0.01 0.00 84 1009.6
20260507045928 48 253 3.5 7.8 0.00 0.01 0.00 84 1009.6
20260507045828 47 254 3.5 7.8 0.00 0.01 0.00 84 1009.6
20260507045728 47 263 3.5 7.8 0.00 0.01 0.00 84 1009.6
20260507045628 47 219 3.5 7.8 0.00 0.01 0.00 84 1009.6
20260507045528 47 273 3.5 7.0 0.00 0.01 0.00 84 1009.5
20260507045503 47 254 3.5 7.0 0.00 0.01 0.00 84 1009.5
20260507045428 47 205 3.5 7.0 0.00 0.01 0.00 84 1009.5
20260507045328 47 265 3.5 7.0 0.00 0.01 0.00 84 1009.5
20260507045229 47 213 3.5 7.0 0.00 0.01 0.00 84 1009.5
20260507045128 47 213 3.5 7.0 0.00 0.01 0.00 84 1009.5
20260507045029 47 234 3.5 7.0 0.00 0.01 0.00 84 1009.5
20260507045001 47 238 3.5 7.0 0.00 0.01 0.00 84 1009.5
20260507044929 47 267 2.6 7.0 0.00 0.01 0.00 85 1009.5
20260507044829 47 261 2.6 6.1 0.00 0.01 0.00 85 1009.6
20260507044729 47 229 2.6 5.2 0.00 0.01 0.00 85 1009.5
20260507044629 47 234 2.6 5.2 0.00 0.01 0.00 85 1009.5
20260507044529 47 225 1.7 5.2 0.00 0.01 0.00 85 1009.5
20260507044501 47 215 1.7 5.2 0.00 0.01 0.00 85 1009.5
20260507044429 47 214 1.7 5.2 0.00 0.01 0.00 85 1009.5
20260507044328 47 232 1.7 5.2 0.00 0.01 0.00 84 1009.4
20260507044232 47 231 1.7 5.2 0.00 0.01 0.00 85 1009.4
20260507044228 47 217 1.7 6.1 0.00 0.01 0.00 85 1009.4
20260507044218 47 219 1.7 5.2 0.00 0.01 0.00 85 1009.4
20260507044214 47 217 1.7 4.3 0.00 0.01 0.00 85 1009.4
20260507043929 47 217 1.7 6.1 0.00 0.01 0.00 85 1009.4
20260507043829 47 217 1.7 6.1 0.00 0.01 0.00 85 1009.4
20260507043729 47 217 1.7 6.1 0.00 0.01 0.00 85 1009.3
20260507043628 47 217 1.7 6.1 0.00 0.01 0.00 85 1009.4
20260507043528 47 217 2.6 6.1 0.00 0.01 0.00 85 1009.4
20260507043501 47 217 2.6 6.1 0.00 0.01 0.00 85 1009.3
20260507043428 47 216 2.6 6.1 0.00 0.01 0.00 85 1009.3
20260507043329 47 216 2.6 6.1 0.00 0.01 0.00 85 1009.3
20260507043231 47 216 2.6 6.1 0.00 0.01 0.00 85 1009.3
20260507043227 47 218 2.6 5.2 0.00 0.01 0.00 85 1009.3
20260507043216 47 232 2.6 6.1 0.00 0.01 0.00 85 1009.3
20260507043212 47 221 2.6 6.1 0.00 0.01 0.00 85 1009.3
20260507042929 47 236 1.7 5.2 0.00 0.01 0.00 85 1009.3
20260507042828 47 246 2.6 4.3 0.00 0.01 0.00 85 1009.3
20260507042728 47 234 2.6 4.3 0.00 0.01 0.00 84 1009.3
20260507042632 47 234 2.6 4.3 0.00 0.01 0.00 84 1009.3
20260507042529 47 233 2.6 5.2 0.00 0.01 0.00 84 1009.3
20260507042500 47 215 2.6 5.2 0.00 0.01 0.00 84 1009.3
20260507042429 47 242 2.6 5.2 0.00 0.01 0.00 84 1009.2
20260507042329 47 221 2.6 5.2 0.00 0.01 0.00 84 1009.3
20260507042229 47 236 2.6 5.2 0.00 0.01 0.00 84 1009.2
20260507042130 47 236 2.6 5.2 0.00 0.01 0.00 84 1009.2
20260507042001 47 236 2.6 5.2 0.00 0.01 0.00 84 1009.2
20260507041929 47 235 2.6 5.2 0.00 0.01 0.00 84 1009.2
20260507041829 47 225 2.6 5.2 0.00 0.01 0.00 84 1009.1
20260507041729 47 232 2.6 5.2 0.00 0.01 0.00 84 1009.1
20260507041629 47 225 2.6 5.2 0.00 0.01 0.00 84 1009.1
20260507041529 47 244 2.6 5.2 0.00 0.01 0.00 84 1009.1
20260507041503 47 252 2.6 5.2 0.00 0.01 0.00 84 1009.1
20260507041429 47 252 2.6 5.2 0.00 0.01 0.00 84 1009.1
20260507041330 47 250 2.6 5.2 0.00 0.01 0.00 84 1009.1
20260507041228 47 225 2.6 5.2 0.00 0.01 0.00 84 1009.1
20260507041129 47 215 2.6 5.2 0.00 0.01 0.00 84 1009.0
20260507041029 47 266 2.6 5.2 0.00 0.01 0.00 84 1009.0
20260507041003 47 269 2.6 6.1 0.00 0.01 0.00 84 1009.0
20260507040929 47 269 2.6 6.1 0.00 0.01 0.00 84 1009.0
20260507040828 47 250 2.6 6.1 0.00 0.01 0.00 84 1009.0
20260507040728 47 263 2.6 6.1 0.00 0.01 0.00 84 1009.0
20260507040629 47 253 3.5 6.1 0.00 0.01 0.00 84 1009.0
20260507040529 47 221 3.5 7.8 0.00 0.01 0.00 84 1009.0
20260507040500 47 238 3.5 7.8 0.00 0.01 0.00 83 1009.0
20260507040429 47 238 3.5 7.8 0.00 0.01 0.00 83 1009.0
20260507040229 47 225 4.3 7.8 0.00 0.01 0.00 83 1009.0
20260507040128 47 240 4.3 8.7 0.00 0.01 0.00 83 1009.0
20260507040028 47 250 4.3 8.7 0.00 0.01 0.00 83 1009.0
20260507040001 47 258 4.3 8.7 0.00 0.01 0.00 83 1009.0
20260507035929 47 240 4.3 8.7 0.00 0.01 0.00 83 1009.0
20260507035829 47 238 4.3 8.7 0.00 0.01 0.00 83 1009.0
20260507035729 47 273 4.3 8.7 0.00 0.01 0.00 83 1009.0
20260507035629 47 252 4.3 8.7 0.00 0.01 0.00 83 1009.0
20260507035528 47 265 4.3 8.7 0.00 0.01 0.00 83 1009.0
20260507035501 47 254 4.3 8.7 0.00 0.01 0.00 83 1009.0
20260507035428 47 277 4.3 8.7 0.00 0.01 0.00 83 1008.9
20260507035329 47 250 4.3 8.7 0.00 0.01 0.00 83 1009.0
20260507035229 47 257 4.3 8.7 0.00 0.01 0.00 83 1009.1
20260507035129 47 268 4.3 8.7 0.00 0.01 0.00 83 1009.0
20260507035028 47 249 4.3 8.7 0.00 0.01 0.00 83 1009.0
20260507035001 47 273 4.3 8.7 0.00 0.01 0.00 83 1009.0
20260507034929 47 248 4.3 8.7 0.00 0.01 0.00 83 1008.9
20260507034829 47 248 4.3 8.7 0.00 0.01 0.00 83 1009.0
20260507034729 47 271 4.3 8.7 0.00 0.01 0.00 83 1009.0
20260507034629 47 269 4.3 8.7 0.00 0.01 0.00 83 1008.9
20260507034529 47 232 4.3 8.7 0.00 0.01 0.00 83 1008.9
20260507034501 47 253 4.3 8.7 0.00 0.01 0.00 83 1008.9
20260507034429 47 307 4.3 8.7 0.00 0.01 0.00 83 1008.9
20260507034329 47 254 4.3 8.7 0.00 0.01 0.00 83 1009.0
20260507034229 47 268 4.3 7.8 0.00 0.01 0.00 83 1008.9
20260507034129 47 225 4.3 7.8 0.00 0.01 0.00 83 1008.9
20260507034029 47 269 3.5 7.0 0.00 0.01 0.00 83 1008.9
20260507034001 47 275 3.5 7.8 0.00 0.01 0.00 83 1008.9
20260507033929 47 271 3.5 7.8 0.00 0.01 0.00 83 1008.8
20260507033829 47 254 3.5 7.8 0.00 0.01 0.00 83 1008.9
20260507033729 47 235 3.5 7.8 0.00 0.01 0.00 83 1008.8
20260507033629 47 248 3.5 7.8 0.00 0.01 0.00 83 1008.8
20260507033529 47 242 3.5 7.8 0.00 0.01 0.00 83 1008.8
20260507033500 47 254 3.5 7.8 0.00 0.01 0.00 83 1008.8
20260507033429 47 263 3.5 7.8 0.00 0.01 0.00 83 1008.8
20260507033329 47 261 3.5 7.8 0.00 0.01 0.00 83 1008.8
20260507033229 47 253 3.5 7.8 0.00 0.01 0.00 83 1008.8
20260507033128 47 276 3.5 7.8 0.00 0.01 0.00 83 1008.8
20260507033029 48 257 3.5 7.8 0.00 0.01 0.00 83 1008.8
20260507033000 48 246 3.5 7.8 0.00 0.01 0.00 83 1008.8
20260507032929 47 266 3.5 7.8 0.00 0.01 0.00 83 1008.8
20260507032829 48 238 3.5 8.7 0.00 0.01 0.00 83 1008.7
20260507032729 48 284 4.3 8.7 0.00 0.01 0.00 83 1008.7
20260507032629 47 238 4.3 8.7 0.00 0.01 0.00 83 1008.8
20260507032529 48 265 4.3 8.7 0.00 0.01 0.00 83 1008.8
20260507032500 48 247 4.3 8.7 0.00 0.01 0.00 83 1008.8
20260507032429 47 254 4.3 8.7 0.00 0.01 0.00 83 1008.8
20260507032329 48 259 3.5 8.7 0.00 0.01 0.00 83 1008.8
20260507032228 48 275 4.3 8.7 0.00 0.01 0.00 83 1008.8
20260507032223 48 235 4.3 8.7 0.00 0.01 0.00 83 1008.8
20260507032219 48 264 4.3 8.7 0.00 0.01 0.00 83 1008.7
20260507032211 48 231 4.3 8.7 0.00 0.01 0.00 83 1008.8
20260507031929 48 274 4.3 8.7 0.00 0.01 0.00 83 1008.8
20260507031829 48 244 4.3 7.8 0.00 0.01 0.00 83 1008.8
20260507031729 48 259 3.5 7.8 0.00 0.01 0.00 83 1008.8
20260507031629 47 240 3.5 7.0 0.00 0.01 0.00 83 1008.8
20260507031529 48 240 3.5 7.0 0.00 0.01 0.00 83 1008.8
20260507031501 47 260 3.5 7.0 0.00 0.01 0.00 83 1008.8
20260507031429 48 252 3.5 7.0 0.00 0.01 0.00 83 1008.8
20260507031329 47 257 3.5 7.0 0.00 0.01 0.00 83 1008.8
20260507031228 47 253 3.5 7.0 0.00 0.01 0.00 83 1008.8
20260507031128 47 219 3.5 7.8 0.00 0.01 0.00 83 1008.8
20260507031029 47 233 3.5 7.8 0.00 0.01 0.00 83 1008.8
20260507031001 47 250 3.5 7.8 0.00 0.01 0.00 83 1008.7
20260507030928 48 247 3.5 7.8 0.00 0.01 0.00 83 1008.7
20260507030828 48 233 3.5 7.8 0.00 0.01 0.00 83 1008.8
20260507030729 47 253 3.5 7.8 0.00 0.01 0.00 83 1008.7
20260507030629 47 228 3.5 7.8 0.00 0.01 0.00 83 1008.8
20260507030529 47 223 3.5 8.7 0.00 0.01 0.00 83 1008.8
20260507030440 47 232 3.5 8.7 0.00 0.01 0.00 83 1008.7
20260507030432 47 228 3.5 8.7 0.00 0.01 0.00 83 1008.8
20260507030428 47 267 3.5 8.7 0.00 0.01 0.00 83 1008.7
20260507030424 47 273 3.5 8.7 0.00 0.01 0.00 83 1008.8
20260507030209 47 221 3.5 8.7 0.00 0.01 0.00 83 1008.8
20260507030205 47 223 3.5 8.7 0.00 0.01 0.00 83 1008.7
20260507025929 47 246 3.5 8.7 0.00 0.01 0.00 83 1008.7
20260507025829 47 276 3.5 8.7 0.00 0.01 0.00 83 1008.7
20260507025729 47 243 3.5 8.7 0.00 0.01 0.00 83 1008.7
20260507025629 47 242 3.5 8.7 0.00 0.01 0.00 83 1008.8
20260507025531 47 211 3.5 8.7 0.00 0.01 0.00 83 1008.7
20260507025445 47 215 3.5 8.7 0.00 0.01 0.00 83 1008.7
20260507025429 47 243 3.5 8.7 0.00 0.01 0.00 83 1008.7
20260507025328 47 262 4.3 8.7 0.00 0.01 0.00 83 1008.7
20260507025228 47 270 4.3 8.7 0.00 0.01 0.00 83 1008.7
20260507025128 47 248 3.5 8.7 0.00 0.01 0.00 83 1008.8
20260507025029 47 237 3.5 8.7 0.00 0.01 0.00 83 1008.7
20260507024938 47 252 3.5 8.7 0.00 0.01 0.00 83 1008.7
20260507024929 47 215 3.5 8.7 0.00 0.01 0.00 83 1008.7
20260507024829 47 259 3.5 8.7 0.00 0.01 0.00 83 1008.7
20260507024729 47 300 3.5 7.8 0.00 0.01 0.00 83 1008.7
20260507024629 47 259 3.5 7.8 0.00 0.01 0.00 83 1008.7
20260507024529 47 246 3.5 7.8 0.00 0.01 0.00 83 1008.7
20260507024429 47 263 3.5 7.8 0.00 0.01 0.00 83 1008.8
20260507024423 47 267 4.3 8.7 0.00 0.01 0.00 83 1008.7
20260507024414 47 271 4.3 8.7 0.00 0.01 0.00 83 1008.8
20260507024410 47 231 4.3 8.7 0.00 0.01 0.00 83 1008.7
20260507024152 47 223 4.3 8.7 0.00 0.01 0.00 83 1008.7
20260507024148 47 217 4.3 8.7 0.00 0.01 0.00 83 1008.7
20260507023928 47 272 4.3 8.7 0.00 0.01 0.00 83 1008.7
20260507023828 47 273 4.3 8.7 0.00 0.01 0.00 83 1008.7
20260507023629 47 267 4.3 8.7 0.00 0.01 0.00 83 1008.7
20260507023529 47 254 4.3 8.7 0.00 0.01 0.00 83 1008.8
20260507023433 47 255 4.3 8.7 0.00 0.01 0.00 83 1008.8
20260507023429 47 269 4.3 8.7 0.00 0.01 0.00 83 1008.8
20260507023419 47 265 4.3 10.4 0.00 0.01 0.00 83 1008.7
20260507023410 47 249 4.3 10.4 0.00 0.01 0.00 83 1008.7
20260507023152 47 256 4.3 10.4 0.00 0.01 0.00 83 1008.7
20260507023148 47 263 4.3 10.4 0.00 0.01 0.00 83 1008.7
20260507022929 47 234 4.3 10.4 0.00 0.01 0.00 83 1008.7
20260507022829 47 263 4.3 10.4 0.00 0.01 0.00 83 1008.8
20260507022729 47 255 4.3 10.4 0.00 0.01 0.00 83 1008.7
20260507022628 47 265 4.3 10.4 0.00 0.01 0.00 84 1008.7
20260507022528 47 261 4.3 10.4 0.00 0.01 0.00 83 1008.7
20260507022432 47 261 4.3 10.4 0.00 0.01 0.00 83 1008.7
20260507022428 47 243 4.3 10.4 0.00 0.01 0.00 83 1008.7
20260507022329 47 248 4.3 10.4 0.00 0.01 0.00 84 1008.7
20260507022229 47 238 4.3 9.6 0.00 0.01 0.00 84 1008.7
20260507022129 47 241 4.3 9.6 0.00 0.01 0.00 84 1008.7
20260507022029 47 263 4.3 9.6 0.00 0.01 0.00 84 1008.8
20260507021933 47 241 4.3 9.6 0.00 0.01 0.00 84 1008.7
20260507021929 47 252 4.3 9.6 0.00 0.01 0.00 84 1008.7
20260507021829 47 236 4.3 8.7 0.00 0.01 0.00 85 1008.7
20260507021729 47 214 4.3 8.7 0.00 0.01 0.00 85 1008.7
20260507021629 47 275 4.3 8.7 0.00 0.01 0.00 85 1008.7
20260507021529 47 265 3.5 8.7 0.00 0.01 0.00 85 1008.7
20260507021433 47 241 3.5 8.7 0.00 0.01 0.00 85 1008.6
20260507021429 47 263 3.5 8.7 0.00 0.01 0.00 85 1008.6
20260507021329 47 266 3.5 8.7 0.00 0.01 0.00 85 1008.7
20260507021229 47 236 3.5 8.7 0.00 0.01 0.00 85 1008.7
20260507021128 47 267 3.5 8.7 0.00 0.01 0.00 85 1008.6
20260507021028 47 240 3.5 7.8 0.00 0.01 0.00 85 1008.6
20260507020929 47 269 3.5 7.8 0.00 0.01 0.00 85 1008.6
20260507020829 47 267 3.5 7.8 0.00 0.01 0.00 85 1008.4
20260507020729 47 258 3.5 7.8 0.00 0.01 0.00 85 1008.4
20260507020629 47 229 3.5 7.8 0.00 0.01 0.00 85 1008.4
20260507020529 47 248 3.5 7.8 0.00 0.01 0.00 85 1008.4
20260507020433 47 250 3.5 7.8 0.00 0.01 0.00 85 1008.4
20260507020429 47 243 3.5 7.8 0.00 0.01 0.00 85 1008.4
20260507020329 47 248 2.6 7.8 0.00 0.01 0.00 85 1008.4
20260507020229 47 231 2.6 7.0 0.00 0.01 0.00 85 1008.3
20260507020128 47 250 2.6 7.0 0.00 0.01 0.00 85 1008.3
20260507020028 47 263 2.6 7.0 0.00 0.01 0.00 85 1008.3
20260507015928 47 254 3.5 7.0 0.00 0.01 0.00 85 1008.3
20260507015828 47 221 3.5 7.0 0.00 0.01 0.00 85 1008.4
20260507015728 47 224 3.5 7.0 0.00 0.01 0.00 85 1008.4
20260507015628 47 276 3.5 7.0 0.00 0.01 0.00 85 1008.4
20260507015528 47 278 3.5 7.0 0.00 0.01 0.00 85 1008.4
20260507015429 47 262 3.5 7.0 0.00 0.01 0.00 85 1008.4
20260507015329 47 240 3.5 7.0 0.00 0.01 0.00 85 1008.4
20260507015228 47 241 3.5 7.0 0.00 0.01 0.00 85 1008.6
20260507015128 47 286 3.5 7.0 0.00 0.01 0.00 85 1008.4
20260507015028 47 271 3.5 7.0 0.00 0.01 0.00 85 1008.4
20260507014928 47 279 3.5 7.0 0.00 0.01 0.00 85 1008.4
20260507014828 47 277 3.5 7.0 0.00 0.01 0.00 85 1008.4
20260507014729 47 274 2.6 7.0 0.00 0.01 0.00 85 1008.4
20260507014629 47 259 2.6 7.0 0.00 0.01 0.00 85 1008.4
20260507014529 47 247 3.5 7.0 0.00 0.01 0.00 85 1008.4
20260507014428 47 267 2.6 7.0 0.00 0.01 0.00 85 1008.4
20260507014329 47 231 2.6 7.0 0.00 0.01 0.00 85 1008.6
20260507014229 47 244 2.6 7.0 0.00 0.01 0.00 85 1008.4
20260507014129 47 263 2.6 7.0 0.00 0.01 0.00 85 1008.4
20260507014025 47 272 2.6 7.0 0.00 0.01 0.00 85 1008.4
20260507013923 47 272 2.6 7.0 0.00 0.01 0.00 85 1008.4
20260507013820 47 248 2.6 7.0 0.00 0.01 0.00 85 1008.4
20260507013720 47 255 3.5 7.0 0.00 0.01 0.00 85 1008.4
20260507013620 47 246 3.5 7.0 0.00 0.01 0.00 85 1008.6
20260507013514 47 267 3.5 7.0 0.00 0.01 0.00 85 1008.4
20260507013430 47 249 3.5 7.0 0.00 0.01 0.00 85 1008.4
20260507013415 47 275 3.5 7.0 0.00 0.01 0.00 85 1008.4
20260507013315 47 275 3.5 7.0 0.00 0.01 0.00 85 1008.6
20260507013215 47 265 3.5 7.0 0.00 0.01 0.00 85 1008.6
20260507013115 47 247 3.5 7.0 0.00 0.01 0.00 85 1008.6
20260507013015 47 269 3.5 7.0 0.00 0.01 0.00 85 1008.4
20260507012931 47 279 3.5 7.0 0.00 0.01 0.00 85 1008.4
20260507012912 47 267 3.5 7.0 0.00 0.01 0.00 85 1008.4
20260507012812 47 279 2.6 7.0 0.00 0.01 0.00 85 1008.4
20260507012713 47 261 2.6 7.0 0.00 0.01 0.00 85 1008.4
20260507012613 47 247 2.6 7.0 0.00 0.01 0.00 85 1008.4
20260507012513 47 263 2.6 7.0 0.00 0.01 0.00 85 1008.4
20260507012412 47 254 2.6 7.0 0.00 0.01 0.00 85 1008.4
20260507012312 47 246 2.6 6.1 0.00 0.01 0.00 85 1008.4
20260507012213 47 244 2.6 6.1 0.00 0.01 0.00 85 1008.3
20260507012112 47 242 2.6 6.1 0.00 0.01 0.00 85 1008.3
20260507012012 47 275 2.6 6.1 0.00 0.01 0.00 85 1008.4
20260507011913 47 214 2.6 6.1 0.00 0.01 0.00 85 1008.3
20260507011807 47 279 2.6 6.1 0.00 0.01 0.00 85 1008.3
20260507011707 47 266 2.6 6.1 0.00 0.01 0.00 85 1008.3
20260507011606 47 255 2.6 6.1 0.00 0.01 0.00 85 1008.3
20260507011506 47 236 2.6 6.1 0.00 0.01 0.00 85 1008.3
20260507011433 47 242 2.6 6.1 0.00 0.01 0.00 85 1008.4
20260507011407 47 252 2.6 6.1 0.00 0.01 0.00 85 1008.4
20260507011307 47 257 2.6 5.2 0.00 0.01 0.00 85 1008.3
20260507011207 47 265 2.6 5.2 0.00 0.01 0.00 85 1008.3
20260507011107 47 252 2.6 5.2 0.00 0.01 0.00 85 1008.3
20260507011006 47 258 2.6 5.2 0.00 0.01 0.00 85 1008.3
20260507010931 47 261 2.6 5.2 0.00 0.01 0.00 85 1008.3
20260507010907 47 249 2.6 5.2 0.00 0.01 0.00 85 1008.3
20260507010806 47 225 2.6 5.2 0.00 0.01 0.00 85 1008.3
20260507010706 47 248 2.6 5.2 0.00 0.01 0.00 85 1008.3
20260507010651 47 208 2.6 6.1 0.00 0.01 0.00 85 1008.2
20260507010645 47 263 2.6 5.2 0.00 0.01 0.00 85 1008.3
20260507010641 47 217 2.6 6.1 0.00 0.01 0.00 85 1008.3
20260507010403 47 250 2.6 6.1 0.00 0.01 0.00 85 1008.2
20260507010303 47 241 2.6 6.1 0.00 0.01 0.00 85 1008.3
20260507010203 47 221 2.6 6.1 0.00 0.01 0.00 85 1008.3
20260507010002 47 252 2.6 6.1 0.00 0.01 0.00 85 1008.3
20260507005902 47 234 2.6 6.1 0.00 0.01 0.00 85 1008.3
20260507005803 47 241 2.6 6.1 0.00 0.01 0.00 85 1008.3
20260507005703 47 258 2.6 6.1 0.00 0.01 0.00 85 1008.3
20260507005603 47 240 2.6 6.1 0.00 0.01 0.00 85 1008.3
20260507005502 47 254 2.6 5.2 0.00 0.01 0.00 85 1008.3
20260507005429 47 228 2.6 5.2 0.00 0.01 0.00 84 1008.3
20260507005400 47 237 2.6 5.2 0.00 0.01 0.00 84 1008.3
20260507005301 47 280 2.6 5.2 0.00 0.01 0.00 84 1008.3
20260507005201 47 246 2.6 5.2 0.00 0.01 0.00 84 1008.3
20260507005101 47 235 2.6 5.2 0.00 0.01 0.00 84 1008.3
20260507005001 47 245 2.6 5.2 0.00 0.01 0.00 84 1008.3
20260507004928 47 214 2.6 5.2 0.00 0.01 0.00 84 1008.3
20260507004901 47 236 2.6 5.2 0.00 0.01 0.00 84 1008.3
20260507004801 47 236 2.6 5.2 0.00 0.01 0.00 84 1008.4
20260507004700 47 267 2.6 6.1 0.00 0.01 0.00 84 1008.4
20260507004600 47 247 2.6 6.1 0.00 0.01 0.00 84 1008.3
20260507004500 47 221 2.6 6.1 0.00 0.01 0.00 84 1008.3
20260507004430 47 220 2.6 6.1 0.00 0.01 0.00 84 1008.3
20260507004401 47 232 2.6 6.1 0.00 0.01 0.00 84 1008.3
20260507004301 47 233 2.6 6.1 0.00 0.01 0.00 84 1008.3
20260507004201 47 229 2.6 6.1 0.00 0.01 0.00 84 1008.2
20260507004100 47 242 2.6 7.0 0.00 0.01 0.00 84 1008.2
20260507004000 47 213 2.6 7.0 0.00 0.01 0.00 84 1008.3
20260507003929 47 232 3.5 7.0 0.00 0.01 0.00 84 1008.2
20260507003900 47 252 3.5 7.0 0.00 0.01 0.00 84 1008.2
20260507003801 47 269 3.5 7.0 0.00 0.01 0.00 84 1008.2
20260507003701 47 226 3.5 7.0 0.00 0.01 0.00 84 1008.2
20260507003601 47 234 3.5 7.8 0.00 0.01 0.00 84 1008.2
20260507003501 47 275 3.5 7.8 0.00 0.01 0.00 84 1008.2
20260507003428 47 274 3.5 7.8 0.00 0.01 0.00 84 1008.2
20260507003401 47 263 3.5 7.8 0.00 0.01 0.00 84 1008.2
20260507003300 47 271 3.5 7.8 0.00 0.01 0.00 84 1008.3
20260507003200 47 264 3.5 7.8 0.00 0.01 0.00 84 1008.3
20260507003100 47 261 3.5 7.8 0.00 0.01 0.00 84 1008.3
20260507003000 47 245 2.6 7.8 0.00 0.01 0.00 84 1008.3
20260507002929 47 261 2.6 7.8 0.00 0.01 0.00 83 1008.3
20260507002900 47 255 2.6 7.8 0.00 0.01 0.00 83 1008.3
20260507002800 48 251 2.6 7.8 0.00 0.01 0.00 83 1008.3
20260507002700 48 263 2.6 7.8 0.00 0.01 0.00 83 1008.4
20260507002601 48 273 2.6 6.1 0.00 0.01 0.00 83 1008.3
20260507002501 48 234 2.6 6.1 0.00 0.01 0.00 83 1008.3
20260507002406 48 265 2.6 6.1 0.00 0.01 0.00 83 1008.3
20260507002300 48 235 2.6 6.1 0.00 0.01 0.00 83 1008.3
20260507002201 48 247 2.6 6.1 0.00 0.01 0.00 83 1008.3
20260507002101 48 248 2.6 6.1 0.00 0.01 0.00 83 1008.3
20260507002001 48 244 3.5 6.1 0.00 0.01 0.00 83 1008.3
20260507001929 48 233 2.6 6.1 0.00 0.01 0.00 83 1008.2
20260507001902 48 263 2.6 6.1 0.00 0.01 0.00 83 1008.2
20260507001800 48 275 2.6 6.1 0.00 0.01 0.00 83 1008.3
20260507001700 48 265 2.6 6.1 0.00 0.01 0.00 83 1008.2
20260507001600 48 271 2.6 6.1 0.00 0.01 0.00 83 1008.3
20260507001501 48 247 2.6 6.1 0.00 0.01 0.00 83 1008.3
20260507001429 48 245 2.6 6.1 0.00 0.01 0.00 83 1008.3
20260507001401 48 249 2.6 6.1 0.00 0.01 0.00 83 1008.3
20260507001301 48 250 2.6 5.2 0.00 0.01 0.00 83 1008.3
20260507001201 48 219 2.6 5.2 0.00 0.01 0.00 83 1008.2
20260507001101 48 261 2.6 5.2 0.00 0.01 0.00 83 1008.3
20260507001000 48 265 2.6 5.2 0.00 0.01 0.00 83 1008.3
20260507000929 48 286 2.6 5.2 0.00 0.01 0.00 83 1008.3
20260507000901 48 281 2.6 5.2 0.00 0.01 0.00 83 1008.3
20260507000800 48 248 2.6 4.3 0.00 0.01 0.00 83 1008.3
20260507000700 48 245 1.7 4.3 0.00 0.01 0.00 83 1008.4
20260507000600 48 233 2.6 4.3 0.00 0.01 0.00 83 1008.4
20260507000500 48 264 2.6 4.3 0.00 0.01 0.00 83 1008.4
20260507000428 48 259 1.7 4.3 0.00 0.01 0.00 83 1008.3
20260507000401 48 265 1.7 4.3 0.00 0.01 0.00 83 1008.3
20260507000300 48 248 2.6 5.2 0.00 0.01 0.00 83 1008.3
20260507000201 48 248 2.6 5.2 0.00 0.01 0.00 83 1008.3
20260507000101 48 232 2.6 6.1 0.00 0.01 0.00 83 1008.3
20260507000001 48 224 2.6 6.1 0.00 0.01 0.00 83 1008.3
20260506235901 48 235 2.6 6.1 0.00 0.01 0.00 83 1008.4
20260506235800 48 229 2.6 6.1 0.00 0.01 0.00 83 1008.3
20260506235700 49 229 2.6 7.0 0.00 0.01 0.00 83 1008.3
20260506235600 49 258 2.6 7.0 0.00 0.01 0.00 83 1008.3
20260506235501 49 242 2.6 7.0 0.00 0.01 0.00 83 1008.3
20260506235428 49 242 3.5 7.0 0.00 0.01 0.00 83 1008.3
20260506235402 49 265 3.5 7.0 0.00 0.01 0.00 83 1008.3
20260506235300 49 265 3.5 7.0 0.00 0.01 0.00 83 1008.4
20260506235200 49 265 3.5 7.0 0.00 0.01 0.00 83 1008.4
20260506235100 49 296 3.5 7.0 0.00 0.01 0.00 83 1008.4
20260506235000 49 275 3.5 7.8 0.00 0.01 0.00 83 1008.4
20260506234929 49 277 3.5 7.8 0.00 0.01 0.00 83 1008.4
20260506234801 49 239 3.5 7.8 0.00 0.01 0.00 83 1008.4
20260506234700 49 256 3.5 8.7 0.00 0.01 0.00 83 1008.4
20260506234654 49 273 3.5 8.7 0.00 0.01 0.00 83 1008.4
20260506234644 49 263 3.5 8.7 0.00 0.01 0.00 83 1008.4
20260506234640 49 265 3.5 8.7 0.00 0.01 0.00 83 1008.4
20260506234401 49 253 3.5 8.7 0.00 0.01 0.00 83 1008.4
20260506234300 49 245 3.5 8.7 0.00 0.01 0.00 83 1008.4
20260506234200 49 225 3.5 8.7 0.00 0.01 0.00 83 1008.4
20260506234100 49 266 3.5 8.7 0.00 0.01 0.00 83 1008.4
20260506234000 49 277 3.5 8.7 0.00 0.01 0.00 83 1008.4
20260506233929 49 241 3.5 8.7 0.00 0.01 0.00 83 1008.4
20260506233901 49 281 3.5 8.7 0.00 0.01 0.00 83 1008.4
20260506233801 49 269 3.5 8.7 0.00 0.01 0.00 83 1008.4
20260506233701 49 300 3.5 7.8 0.00 0.01 0.00 83 1008.3
20260506233655 49 269 3.5 7.8 0.00 0.01 0.00 83 1008.3
20260506233644 49 235 3.5 7.8 0.00 0.01 0.00 83 1008.3
20260506233640 49 268 3.5 7.8 0.00 0.01 0.00 83 1008.3
20260506233401 49 261 3.5 7.8 0.00 0.01 0.00 83 1008.3
20260506233300 49 277 3.5 7.8 0.00 0.01 0.00 83 1008.3
20260506233200 49 284 3.5 7.8 0.00 0.01 0.00 83 1008.4
20260506233100 49 271 3.5 7.8 0.00 0.01 0.00 83 1008.4
20260506233001 49 252 4.3 7.8 0.00 0.01 0.00 83 1008.4
20260506232928 49 262 4.3 7.8 0.00 0.01 0.00 83 1008.4
20260506232901 49 273 4.3 7.8 0.00 0.01 0.00 83 1008.4
20260506232801 49 267 4.3 7.8 0.00 0.01 0.00 83 1008.4
20260506232700 49 213 4.3 7.8 0.00 0.01 0.00 83 1008.4
20260506232653 49 272 4.3 7.8 0.00 0.01 0.00 83 1008.3
20260506232644 49 223 4.3 7.8 0.00 0.01 0.00 83 1008.3
20260506232640 49 275 4.3 7.8 0.00 0.01 0.00 83 1008.4
20260506232401 49 275 4.3 7.8 0.00 0.01 0.00 83 1008.3
20260506232301 49 252 4.3 7.8 0.00 0.01 0.00 83 1008.4
20260506232201 49 269 4.3 7.8 0.00 0.01 0.00 83 1008.4
20260506232101 49 246 4.3 7.8 0.00 0.01 0.00 83 1008.4
20260506232001 49 257 4.3 7.8 0.00 0.01 0.00 83 1008.3
20260506231929 49 236 4.3 7.8 0.00 0.01 0.00 83 1008.3
20260506231901 49 247 4.3 7.8 0.00 0.01 0.00 83 1008.3
20260506231801 49 220 4.3 7.8 0.00 0.01 0.00 83 1008.3
20260506231701 49 275 4.3 7.8 0.00 0.01 0.00 83 1008.2
20260506231601 49 229 4.3 7.8 0.00 0.01 0.00 83 1008.3
20260506231501 49 251 4.3 7.8 0.00 0.01 0.00 83 1008.3
20260506231429 49 241 4.3 7.8 0.00 0.01 0.00 83 1008.3
20260506231401 49 253 4.3 7.8 0.00 0.01 0.00 83 1008.3
20260506231301 49 254 4.3 7.8 0.00 0.01 0.00 82 1008.3
20260506231201 49 295 3.5 7.8 0.00 0.01 0.00 82 1008.2
20260506231101 49 261 4.3 7.8 0.00 0.01 0.00 82 1008.2
20260506231001 49 214 4.3 7.8 0.00 0.01 0.00 82 1008.1
20260506230901 49 213 4.3 7.8 0.00 0.01 0.00 82 1008.2
20260506230801 49 229 4.3 7.8 0.00 0.01 0.00 82 1008.2
20260506230701 49 242 4.3 7.8 0.00 0.01 0.00 82 1008.1
20260506230600 49 212 4.3 7.8 0.00 0.01 0.00 82 1008.2
20260506230500 49 242 4.3 7.8 0.00 0.01 0.00 82 1008.2
20260506230429 49 219 4.3 7.8 0.00 0.01 0.00 82 1008.2
20260506230400 49 261 4.3 7.8 0.00 0.01 0.00 82 1008.2
20260506230300 49 252 4.3 8.7 0.00 0.01 0.00 82 1008.1
20260506230156 49 252 4.3 8.7 0.00 0.01 0.00 82 1008.1
20260506230057 49 240 4.3 8.7 0.00 0.01 0.00 82 1008.1
20260506225954 49 229 4.3 8.7 0.00 0.01 0.00 82 1008.1
20260506225929 49 241 4.3 8.7 0.00 0.01 0.00 82 1008.1
20260506225854 49 259 4.3 8.7 0.00 0.01 0.00 82 1008.1
20260506225754 49 265 4.3 8.7 0.00 0.01 0.00 82 1008.1
20260506225649 49 274 4.3 8.7 0.00 0.01 0.00 82 1008.1
20260506225549 49 284 4.3 8.7 0.00 0.01 0.00 82 1008.1
20260506225448 49 228 4.3 8.7 0.00 0.01 0.00 82 1008.1
20260506225429 49 257 4.3 8.7 0.00 0.01 0.00 82 1008.1
20260506225348 49 250 4.3 8.7 0.00 0.01 0.00 82 1008.1
20260506225248 49 281 4.3 8.7 0.00 0.01 0.00 82 1008.1
20260506225142 49 227 3.5 8.7 0.00 0.01 0.00 82 1008.1
20260506225042 49 263 3.5 8.7 0.00 0.01 0.00 82 1008.1
20260506224943 49 269 3.5 8.7 0.00 0.01 0.00 82 1008.1
20260506224929 49 255 3.5 8.7 0.00 0.01 0.00 82 1008.1
20260506224842 49 246 4.3 8.7 0.00 0.01 0.00 82 1008.1
20260506224741 49 236 3.5 9.6 0.00 0.01 0.00 82 1008.2
20260506224636 49 275 3.5 9.6 0.00 0.01 0.00 82 1008.1
20260506224536 49 260 3.5 9.6 0.00 0.01 0.00 82 1008.1
20260506224436 49 263 3.5 9.6 0.00 0.01 0.00 81 1008.1
20260506224429 49 271 3.5 9.6 0.00 0.01 0.00 81 1008.1
20260506224336 49 238 3.5 9.6 0.00 0.01 0.00 81 1008.1
20260506224236 49 255 3.5 9.6 0.00 0.01 0.00 81 1008.1
20260506224134 49 231 4.3 9.6 0.00 0.01 0.00 81 1008.0
20260506224034 49 271 4.3 10.4 0.00 0.01 0.00 81 1008.1
20260506223934 49 246 4.3 10.4 0.00 0.01 0.00 81 1008.1
20260506223929 49 232 4.3 10.4 0.00 0.01 0.00 81 1008.1
20260506223834 49 242 4.3 10.4 0.00 0.01 0.00 81 1008.1
20260506223733 49 262 4.3 10.4 0.00 0.01 0.00 81 1008.1
20260506223633 49 273 4.3 10.4 0.00 0.01 0.00 81 1008.1
20260506223532 49 263 4.3 10.4 0.00 0.01 0.00 81 1008.1
20260506223432 49 259 4.3 10.4 0.00 0.01 0.00 81 1008.0
20260506223428 49 258 4.3 10.4 0.00 0.01 0.00 81 1008.0
20260506223332 49 242 4.3 12.2 0.00 0.01 0.00 81 1008.0
20260506223232 49 269 5.2 12.2 0.00 0.01 0.00 81 1008.1
20260506223130 49 219 5.2 12.2 0.00 0.01 0.00 81 1008.1
20260506223030 49 236 5.2 12.2 0.00 0.01 0.00 81 1008.1
20260506222933 49 263 5.2 12.2 0.00 0.01 0.00 81 1008.1
20260506222929 49 247 5.2 12.2 0.00 0.01 0.00 81 1008.1
20260506222830 49 279 5.2 12.2 0.00 0.01 0.00 81 1008.0
20260506222730 49 241 5.2 12.2 0.00 0.01 0.00 81 1008.1
20260506222648 49 274 5.2 12.2 0.00 0.01 0.00 81 1008.0
20260506222644 49 265 6.1 12.2 0.00 0.01 0.00 81 1008.1
20260506222640 49 221 5.2 12.2 0.00 0.01 0.00 81 1008.2
20260506222330 49 238 5.2 11.3 0.00 0.01 0.00 81 1008.1
20260506222230 49 235 5.2 10.4 0.00 0.01 0.00 81 1008.1
20260506222130 49 246 5.2 10.4 0.00 0.01 0.00 81 1008.2
20260506222029 49 232 5.2 10.4 0.00 0.01 0.00 81 1008.1
20260506221928 49 268 5.2 10.4 0.00 0.01 0.00 81 1008.1
20260506221829 49 273 5.2 10.4 0.00 0.01 0.00 81 1008.1
20260506221729 49 236 5.2 10.4 0.00 0.01 0.00 81 1008.1
20260506221629 49 223 5.2 10.4 0.00 0.01 0.00 81 1008.1
20260506221529 49 252 5.2 11.3 0.00 0.01 0.00 81 1008.1
20260506221430 49 259 5.2 13.9 0.00 0.01 0.00 81 1008.0
20260506221329 49 278 6.1 13.9 0.00 0.01 0.00 81 1008.0
20260506221228 49 215 6.1 13.9 0.00 0.01 0.00 81 1008.0
20260506221129 49 219 5.2 13.9 0.00 0.01 0.00 81 1008.0
20260506221029 49 226 5.2 13.9 0.00 0.01 0.00 81 1008.0
20260506220929 49 259 5.2 13.9 0.00 0.01 0.00 81 1008.0
20260506220829 49 246 5.2 13.9 0.00 0.01 0.00 81 1008.0
20260506220728 49 261 5.2 13.9 0.00 0.01 0.00 81 1008.0
20260506220628 49 248 5.2 13.9 0.00 0.01 0.00 81 1008.1
20260506220528 49 259 4.3 13.9 0.00 0.01 0.00 81 1008.1
20260506220428 49 260 4.3 9.6 0.00 0.01 0.00 81 1007.9
20260506220329 49 222 4.3 9.6 0.00 0.01 0.00 81 1007.9
20260506220228 49 262 4.3 9.6 0.00 0.01 0.00 81 1007.9
20260506220128 49 252 5.2 9.6 0.00 0.01 0.00 82 1007.9
20260506220028 49 254 5.2 9.6 0.00 0.01 0.00 81 1007.9
20260506215929 49 219 5.2 9.6 0.00 0.01 0.01 82 1007.9
20260506215829 49 238 5.2 9.6 0.00 0.01 0.01 82 1007.9
20260506215729 49 250 5.2 9.6 0.00 0.01 0.01 81 1007.9
20260506215629 49 217 4.3 9.6 0.00 0.01 0.01 82 1007.9
20260506215529 49 280 4.3 9.6 0.00 0.01 0.01 82 1007.8
20260506215429 49 255 4.3 9.6 0.00 0.01 0.01 82 1007.8
20260506215329 49 242 4.3 8.7 0.00 0.01 0.01 82 1007.8
20260506215229 49 196 4.3 8.7 0.00 0.01 0.01 82 1007.8
20260506215148 49 292 4.3 7.8 0.00 0.01 0.01 82 1007.9
20260506215144 49 264 4.3 7.8 0.00 0.01 0.01 82 1007.8
20260506215140 49 269 4.3 8.7 0.00 0.01 0.01 82 1007.8
20260506214829 49 250 4.3 8.7 0.00 0.01 0.01 82 1007.8
20260506214729 49 258 4.3 8.7 0.00 0.01 0.01 82 1007.8
20260506214628 49 212 4.3 8.7 0.00 0.01 0.01 82 1007.8
20260506214528 49 266 4.3 9.6 0.00 0.01 0.01 82 1007.8
20260506214429 49 244 4.3 9.6 0.00 0.01 0.01 82 1007.8
20260506214329 49 274 4.3 9.6 0.00 0.01 0.01 82 1007.8
20260506214229 49 225 4.3 9.6 0.00 0.01 0.01 82 1007.8
20260506214129 49 228 5.2 9.6 0.00 0.01 0.01 82 1007.8
20260506214029 49 240 5.2 9.6 0.00 0.01 0.01 82 1007.7
20260506213929 49 257 5.2 9.6 0.00 0.01 0.01 82 1007.8
20260506213829 49 261 5.2 9.6 0.00 0.01 0.01 82 1007.7
20260506213728 49 288 5.2 9.6 0.00 0.01 0.01 82 1007.7
20260506213628 49 230 5.2 10.4 0.00 0.01 0.01 82 1007.8
20260506213528 49 221 5.2 10.4 0.00 0.01 0.01 82 1007.8
20260506213428 49 234 5.2 10.4 0.00 0.01 0.01 82 1007.7
20260506213330 49 226 5.2 10.4 0.00 0.01 0.01 82 1007.7
20260506213229 49 279 5.2 10.4 0.00 0.01 0.01 82 1007.7
20260506213129 49 240 5.2 10.4 0.00 0.01 0.01 82 1007.8
20260506213029 49 226 5.2 10.4 0.00 0.01 0.01 82 1007.7
20260506212928 49 259 5.2 10.4 0.00 0.01 0.01 82 1007.7
20260506212829 49 233 5.2 11.3 0.00 0.01 0.01 82 1007.7
20260506212729 49 267 4.3 11.3 0.00 0.01 0.01 82 1007.7
20260506212629 49 243 4.3 11.3 0.00 0.01 0.01 82 1007.7
20260506212529 49 220 4.3 11.3 0.00 0.01 0.01 82 1007.7
20260506212429 49 259 4.3 11.3 0.00 0.01 0.01 82 1007.7
20260506212329 49 248 4.3 11.3 0.00 0.01 0.01 82 1007.7
20260506212229 49 218 4.3 11.3 0.00 0.01 0.01 82 1007.6
20260506212129 49 240 4.3 11.3 0.00 0.01 0.01 82 1007.6
20260506212029 49 265 4.3 11.3 0.00 0.01 0.01 82 1007.7
20260506211930 49 270 4.3 11.3 0.00 0.01 0.01 82 1007.8
20260506211829 49 264 4.3 9.6 0.00 0.01 0.01 82 1007.7
20260506211733 49 268 4.3 9.6 0.00 0.01 0.01 82 1007.8
20260506211629 49 267 4.3 9.6 0.00 0.01 0.01 82 1007.7
20260506211529 49 224 4.3 9.6 0.00 0.01 0.01 82 1007.7
20260506211429 49 256 4.3 9.6 0.00 0.01 0.01 82 1007.7
20260506211329 49 254 4.3 9.6 0.00 0.01 0.01 82 1007.7
20260506211230 49 257 4.3 9.6 0.00 0.01 0.01 82 1007.7
20260506211029 49 232 4.3 8.7 0.00 0.01 0.01 82 1007.7
20260506210929 49 235 3.5 8.7 0.00 0.01 0.01 82 1007.8
20260506210829 49 254 4.3 8.7 0.00 0.01 0.01 82 1007.8
20260506210729 49 254 4.3 8.7 0.00 0.01 0.01 82 1007.7
20260506210629 49 238 4.3 8.7 0.00 0.01 0.01 82 1007.7
20260506210529 49 250 4.3 8.7 0.00 0.01 0.01 82 1007.9
20260506210428 49 250 4.3 8.7 0.00 0.01 0.01 82 1007.8
20260506210328 49 274 4.3 12.2 0.00 0.01 0.01 82 1007.8
20260506210228 49 262 5.2 12.2 0.00 0.01 0.01 82 1007.8
20260506210128 49 227 5.2 12.2 0.00 0.01 0.01 82 1007.8
20260506210028 49 243 5.2 12.2 0.00 0.01 0.01 82 1007.7
20260506205928 49 223 5.2 12.2 0.00 0.01 0.01 82 1007.7
20260506205829 49 236 5.2 12.2 0.00 0.01 0.01 82 1007.7
20260506205729 49 280 5.2 12.2 0.00 0.01 0.01 82 1007.7
20260506205629 49 277 6.1 12.2 0.00 0.01 0.01 82 1007.7
20260506205528 49 262 6.1 12.2 0.00 0.01 0.01 82 1007.7
20260506205429 49 273 6.1 12.2 0.00 0.01 0.01 82 1007.7
20260506205329 49 246 6.1 12.2 0.00 0.01 0.01 82 1007.7
20260506205229 49 235 6.1 12.2 0.00 0.01 0.01 82 1007.7
20260506205129 49 225 5.2 12.2 0.00 0.01 0.01 82 1007.7
20260506205029 49 273 5.2 10.4 0.00 0.01 0.01 82 1007.6
20260506204929 49 230 5.2 10.4 0.00 0.01 0.01 82 1007.7
20260506204828 49 232 5.2 10.4 0.00 0.01 0.01 82 1007.7
20260506204729 49 248 5.2 10.4 0.00 0.01 0.01 82 1007.7
20260506204629 49 247 5.2 10.4 0.00 0.01 0.01 82 1007.7
20260506204530 49 220 5.2 10.4 0.00 0.01 0.01 82 1007.8
20260506204429 49 257 5.2 13.0 0.00 0.01 0.01 82 1007.7
20260506204329 49 244 5.2 13.0 0.00 0.01 0.01 82 1007.6
20260506204229 49 248 5.2 13.0 0.00 0.01 0.01 82 1007.6
20260506204129 49 271 5.2 13.0 0.00 0.01 0.01 82 1007.5
20260506204029 49 257 5.2 13.0 0.00 0.01 0.01 82 1007.6
20260506203928 49 279 5.2 13.0 0.00 0.01 0.01 82 1007.5
20260506203828 49 242 5.2 13.0 0.00 0.01 0.01 82 1007.5
20260506203728 49 263 5.2 13.0 0.00 0.01 0.01 82 1007.5
20260506203649 49 217 5.2 13.0 0.00 0.01 0.01 82 1007.5
20260506203645 49 215 5.2 13.0 0.00 0.01 0.01 82 1007.5
20260506203641 49 229 5.2 11.3 0.00 0.01 0.01 82 1007.5
20260506203329 49 276 5.2 11.3 0.00 0.01 0.01 82 1007.5
20260506203228 49 252 5.2 11.3 0.00 0.01 0.01 81 1007.4
20260506203128 49 236 5.2 11.3 0.00 0.01 0.01 81 1007.5
20260506203028 49 221 5.2 9.6 0.00 0.01 0.01 81 1007.4
20260506202929 49 236 5.2 9.6 0.00 0.01 0.01 81 1007.5
20260506202829 49 240 5.2 9.6 0.00 0.01 0.01 81 1007.4
20260506202729 49 284 5.2 9.6 0.00 0.01 0.01 81 1007.5
20260506202629 49 290 5.2 9.6 0.00 0.01 0.01 81 1007.4
20260506202529 49 253 6.1 9.6 0.00 0.01 0.01 81 1007.5
20260506202429 49 266 6.1 9.6 0.00 0.01 0.01 81 1007.5
20260506202329 49 247 5.2 9.6 0.00 0.01 0.01 82 1007.5
20260506202228 49 217 5.2 9.6 0.00 0.01 0.01 82 1007.4
20260506202129 49 271 5.2 9.6 0.00 0.01 0.01 82 1007.4
20260506202029 49 260 5.2 9.6 0.00 0.01 0.01 82 1007.4
20260506201929 49 256 5.2 9.6 0.00 0.01 0.01 82 1007.4
20260506201829 49 241 5.2 9.6 0.00 0.01 0.01 82 1007.4
20260506201729 49 275 5.2 9.6 0.00 0.01 0.01 82 1007.4
20260506201649 49 234 4.3 9.6 0.00 0.01 0.01 82 1007.4
20260506201645 49 241 4.3 9.6 0.00 0.01 0.01 81 1007.4
20260506201641 49 265 4.3 9.6 0.00 0.01 0.01 81 1007.4
20260506201329 49 279 4.3 9.6 0.00 0.01 0.01 82 1007.3
20260506201229 49 239 4.3 9.6 0.00 0.01 0.01 81 1007.3
20260506201129 49 225 4.3 9.6 0.00 0.01 0.01 81 1007.3
20260506201029 49 244 4.3 7.8 0.00 0.01 0.01 81 1007.4
20260506200928 49 261 4.3 7.8 0.00 0.01 0.01 82 1007.3
20260506200829 49 286 4.3 7.8 0.00 0.01 0.01 82 1007.3
20260506200728 49 272 4.3 7.8 0.00 0.01 0.01 81 1007.3
20260506200628 49 232 4.3 7.8 0.00 0.01 0.01 81 1007.3
20260506200528 49 249 4.3 7.8 0.00 0.01 0.01 81 1007.3
20260506200430 49 249 4.3 8.7 0.00 0.01 0.01 81 1007.3
20260506200426 49 248 4.3 8.7 0.00 0.01 0.01 81 1007.3
20260506200329 49 244 4.3 8.7 0.00 0.01 0.01 81 1007.2
20260506200229 49 210 4.3 8.7 0.00 0.01 0.01 81 1007.2
20260506200128 49 277 4.3 8.7 0.00 0.01 0.01 81 1007.3
20260506200029 49 236 4.3 8.7 0.00 0.01 0.01 81 1007.2
20260506195921 49 252 5.2 8.7 0.00 0.01 0.01 81 1007.2
20260506195829 49 271 5.2 8.7 0.00 0.01 0.01 81 1007.1
20260506195729 49 302 5.2 8.7 0.00 0.01 0.01 81 1007.1
20260506195630 49 232 5.2 8.7 0.00 0.01 0.01 81 1007.2
20260506195529 49 246 5.2 9.6 0.00 0.01 0.01 81 1007.3
20260506195429 49 276 5.2 9.6 0.00 0.01 0.01 81 1007.2
20260506195415 49 290 5.2 9.6 0.00 0.01 0.01 81 1007.2
20260506195329 49 267 5.2 9.6 0.00 0.01 0.01 81 1007.3
20260506195229 49 271 5.2 9.6 0.00 0.01 0.01 81 1007.3
20260506195127 49 242 5.2 9.6 0.00 0.01 0.01 81 1007.2
20260506195027 49 286 5.2 9.6 0.00 0.01 0.01 81 1007.3
20260506194927 50 252 5.2 9.6 0.00 0.01 0.01 81 1007.3
20260506194908 49 296 5.2 9.6 0.00 0.01 0.01 81 1007.3
20260506194826 50 267 5.2 9.6 0.00 0.01 0.01 81 1007.3
20260506194726 50 266 5.2 9.6 0.00 0.01 0.01 81 1007.2
20260506194621 50 229 4.3 9.6 0.00 0.01 0.01 81 1007.3
20260506194521 50 283 4.3 8.7 0.00 0.01 0.01 81 1007.2
20260506194421 50 281 4.3 8.7 0.00 0.01 0.01 81 1007.2
20260506194402 50 247 4.3 8.7 0.00 0.01 0.01 81 1007.2
20260506194320 50 265 4.3 8.7 0.00 0.01 0.01 81 1007.2
20260506194220 50 261 4.3 7.8 0.00 0.01 0.01 81 1007.2
20260506194128 50 253 4.3 7.8 0.00 0.01 0.01 81 1007.2
20260506194123 50 275 4.3 7.8 0.00 0.01 0.01 81 1007.2
20260506194119 50 228 4.3 7.8 0.00 0.01 0.01 81 1007.2
20260506194115 50 272 4.3 7.8 0.00 0.01 0.01 81 1007.2
20260506193817 50 234 5.2 8.7 0.00 0.01 0.01 81 1007.2
20260506193715 50 247 5.2 8.7 0.00 0.01 0.01 81 1007.2
20260506193608 50 269 5.2 9.6 0.00 0.01 0.01 80 1007.1
20260506193508 50 271 5.2 9.6 0.00 0.01 0.01 80 1007.1
20260506193409 50 285 5.2 9.6 0.00 0.01 0.01 80 1007.1
20260506193403 50 249 5.2 9.6 0.00 0.01 0.01 80 1007.1
20260506193309 50 246 5.2 9.6 0.00 0.01 0.01 80 1007.1
20260506193209 50 280 5.2 9.6 0.00 0.01 0.01 80 1007.0
20260506193103 50 239 5.2 10.4 0.00 0.01 0.01 80 1007.0
20260506193003 50 304 5.2 10.4 0.00 0.01 0.01 80 1007.0
20260506192901 50 282 5.2 10.4 0.00 0.01 0.01 80 1007.0
20260506192801 50 288 5.2 10.4 0.00 0.01 0.01 80 1007.0
20260506192701 50 246 5.2 10.4 0.00 0.01 0.01 80 1007.1
20260506192601 50 273 5.2 10.4 0.00 0.01 0.01 80 1007.1
20260506192501 50 262 5.2 10.4 0.00 0.01 0.01 80 1007.0
20260506192401 50 270 5.2 10.4 0.00 0.01 0.01 80 1007.1
20260506192301 50 275 5.2 10.4 0.00 0.01 0.01 80 1007.0
20260506192202 50 248 5.2 10.4 0.00 0.01 0.01 80 1007.0
20260506192100 50 265 5.2 10.4 0.00 0.01 0.01 80 1007.0
20260506192001 50 242 5.2 10.4 0.00 0.01 0.01 80 1007.0
20260506191901 50 233 4.3 9.6 0.00 0.01 0.01 80 1007.1
20260506191801 50 263 4.3 8.7 0.00 0.01 0.01 80 1007.0
20260506191701 50 276 4.3 8.7 0.00 0.01 0.01 80 1007.0
20260506191601 50 248 4.3 8.7 0.00 0.01 0.01 80 1007.0
20260506191500 50 227 5.2 8.7 0.00 0.01 0.01 80 1007.0
20260506191400 50 230 5.2 8.7 0.00 0.01 0.01 80 1007.0
20260506191301 50 244 5.2 8.7 0.00 0.01 0.01 80 1007.0
20260506191101 50 262 5.2 10.4 0.00 0.01 0.01 80 1007.1
20260506191001 50 274 5.2 10.4 0.00 0.01 0.01 79 1007.0
20260506190901 50 269 5.2 10.4 0.00 0.01 0.01 79 1007.0
20260506190801 50 277 5.2 10.4 0.00 0.01 0.01 79 1007.0
20260506190700 51 265 5.2 10.4 0.00 0.01 0.01 79 1007.0
20260506190600 51 218 5.2 10.4 0.00 0.01 0.01 79 1007.0
20260506190500 50 201 5.2 10.4 0.00 0.01 0.01 79 1007.0
20260506190400 51 254 5.2 10.4 0.00 0.01 0.01 79 1007.1
20260506190301 51 217 5.2 10.4 0.00 0.01 0.01 79 1007.0
20260506190201 51 236 5.2 10.4 0.00 0.01 0.01 79 1007.0
20260506190100 51 211 5.2 9.6 0.00 0.01 0.01 79 1006.9
20260506190001 51 223 5.2 9.6 0.00 0.01 0.01 80 1006.9
20260506185901 51 238 5.2 9.6 0.00 0.01 0.01 80 1006.8
20260506185801 51 226 5.2 9.6 0.00 0.01 0.01 80 1006.9
20260506185701 51 249 5.2 9.6 0.00 0.01 0.01 79 1006.8
20260506185601 51 277 4.3 8.7 0.00 0.01 0.01 79 1006.8
20260506185501 51 240 4.3 8.7 0.00 0.01 0.01 79 1006.8
20260506185400 51 222 4.3 7.8 0.00 0.01 0.01 80 1006.8
20260506185301 51 280 4.3 7.0 0.00 0.01 0.01 79 1006.8
20260506185200 51 221 4.3 7.0 0.00 0.01 0.01 80 1006.8
20260506185100 51 238 4.3 7.0 0.00 0.01 0.01 79 1006.8
20260506185001 51 244 4.3 7.8 0.00 0.01 0.01 79 1006.8
20260506184901 51 245 4.3 7.8 0.00 0.01 0.01 79 1006.8
20260506184801 51 253 4.3 7.8 0.00 0.01 0.01 79 1006.9
20260506184701 51 296 4.3 9.6 0.00 0.01 0.01 79 1006.8
20260506184601 51 250 4.3 9.6 0.00 0.01 0.01 79 1006.8
20260506184501 51 285 4.3 9.6 0.00 0.01 0.01 79 1006.8
20260506184400 51 209 4.3 9.6 0.00 0.01 0.01 79 1006.9
20260506184300 51 260 5.2 9.6 0.00 0.01 0.01 79 1006.9
20260506184201 51 223 5.2 9.6 0.00 0.01 0.01 79 1006.8
20260506184101 51 257 5.2 9.6 0.00 0.01 0.01 79 1006.9
20260506184000 51 227 5.2 9.6 0.00 0.01 0.01 79 1006.9
20260506183900 51 284 5.2 9.6 0.00 0.01 0.01 79 1006.8
20260506183800 51 246 5.2 9.6 0.00 0.01 0.01 79 1006.9
20260506183700 51 248 5.2 9.6 0.00 0.01 0.01 78 1006.7
20260506183601 51 236 5.2 9.6 0.00 0.01 0.01 78 1006.9
20260506183501 51 273 5.2 9.6 0.00 0.01 0.01 79 1006.9
20260506183401 51 277 5.2 9.6 0.00 0.01 0.01 78 1006.8
20260506183301 51 239 5.2 10.4 0.00 0.01 0.01 78 1006.8
20260506183201 51 256 5.2 10.4 0.00 0.01 0.01 79 1006.8
20260506183101 51 271 5.2 10.4 0.00 0.01 0.01 79 1006.8
20260506183000 51 271 5.2 10.4 0.00 0.01 0.01 79 1006.8
20260506182900 51 260 5.2 10.4 0.00 0.01 0.01 78 1006.8
20260506182800 51 264 5.2 10.4 0.00 0.01 0.01 78 1006.7
20260506182700 51 254 5.2 10.4 0.00 0.01 0.01 78 1006.7
20260506182601 51 229 5.2 10.4 0.00 0.01 0.01 78 1006.8
20260506182501 51 262 6.1 11.3 0.00 0.01 0.01 78 1006.7
20260506182401 51 270 6.1 11.3 0.00 0.01 0.01 78 1006.7
20260506182301 51 266 6.1 11.3 0.00 0.01 0.01 78 1006.7
20260506182200 51 238 6.1 11.3 0.00 0.01 0.01 78 1006.7
20260506182101 51 263 6.1 11.3 0.00 0.01 0.01 78 1006.7
20260506182001 51 274 6.1 11.3 0.00 0.01 0.01 79 1006.5
20260506181900 51 255 6.1 11.3 0.00 0.01 0.01 78 1006.7
20260506181800 51 226 6.1 11.3 0.00 0.01 0.01 78 1006.7
20260506181700 51 275 6.1 11.3 0.00 0.01 0.01 78 1006.5
20260506181600 51 223 6.1 11.3 0.00 0.01 0.01 78 1006.4
20260506181501 51 227 5.2 11.3 0.00 0.01 0.01 78 1006.4
20260506181401 51 253 5.2 11.3 0.00 0.01 0.01 78 1006.4
20260506181301 51 236 5.2 10.4 0.00 0.01 0.01 78 1006.4
20260506181201 51 274 5.2 10.4 0.00 0.01 0.01 78 1006.4
20260506181107 52 229 5.2 10.4 0.00 0.01 0.01 78 1006.3
20260506181000 52 281 4.3 10.4 0.00 0.01 0.01 78 1006.3
20260506180901 52 271 4.3 10.4 0.00 0.01 0.01 78 1006.3
20260506180801 52 250 4.3 10.4 0.00 0.01 0.01 78 1006.4
20260506180701 52 273 4.3 9.6 0.00 0.01 0.01 78 1006.3
20260506180603 52 242 4.3 9.6 0.00 0.01 0.01 78 1006.3
20260506180500 52 252 4.3 9.6 0.00 0.01 0.01 78 1006.3
20260506180400 52 277 4.3 9.6 0.00 0.01 0.01 78 1006.3
20260506180300 52 243 4.3 9.6 0.00 0.01 0.01 78 1006.3
20260506180200 52 240 4.3 9.6 0.00 0.01 0.01 78 1006.2
20260506180124 52 243 4.3 9.6 0.00 0.01 0.01 78 1006.3
20260506180116 52 248 4.3 9.6 0.00 0.01 0.01 78 1006.3
20260506180112 52 270 4.3 9.6 0.00 0.01 0.01 78 1006.2
20260506175800 52 272 4.3 8.7 0.00 0.01 0.01 78 1006.2
20260506175701 52 248 4.3 8.7 0.00 0.01 0.01 78 1006.2
20260506175624 52 244 5.2 9.6 0.00 0.01 0.01 78 1006.2
20260506175615 52 243 5.2 11.3 0.00 0.01 0.01 78 1006.2
20260506175611 52 256 6.1 11.3 0.00 0.01 0.01 78 1006.2
20260506175300 52 238 6.1 11.3 0.00 0.01 0.01 78 1006.2
20260506175200 52 242 6.1 11.3 0.00 0.01 0.01 78 1006.1
20260506175101 52 273 6.1 11.3 0.00 0.01 0.01 78 1006.1
20260506175001 52 258 6.1 11.3 0.00 0.01 0.01 78 1006.0
20260506174900 52 216 6.1 11.3 0.00 0.01 0.01 78 1006.0
20260506174800 52 255 6.1 11.3 0.00 0.01 0.01 78 1006.1
20260506174700 52 263 6.1 11.3 0.00 0.01 0.01 78 1006.1
20260506174623 52 272 6.1 11.3 0.00 0.01 0.01 78 1006.1
20260506174615 52 288 5.2 9.6 0.00 0.01 0.01 78 1006.0
20260506174611 52 232 5.2 9.6 0.00 0.01 0.01 78 1006.1
20260506174300 52 218 5.2 8.7 0.00 0.01 0.01 79 1006.0
20260506174200 52 267 5.2 8.7 0.00 0.01 0.01 79 1005.9
20260506174100 52 272 5.2 8.7 0.00 0.01 0.01 78 1005.9
20260506174001 52 214 5.2 8.7 0.00 0.01 0.01 78 1005.9
20260506173901 52 267 5.2 9.6 0.00 0.01 0.01 79 1005.8
20260506173801 52 241 5.2 9.6 0.00 0.01 0.01 78 1005.8
20260506173700 52 273 5.2 9.6 0.00 0.01 0.01 78 1005.7
20260506173600 52 244 5.2 9.6 0.00 0.01 0.01 78 1005.5
20260506173500 52 280 5.2 10.4 0.00 0.01 0.01 78 1005.5
20260506173400 52 255 5.2 10.4 0.00 0.01 0.01 78 1005.5
20260506173300 52 278 5.2 10.4 0.00 0.01 0.01 78 1005.5
20260506173200 52 259 6.1 11.3 0.00 0.01 0.01 78 1005.4
20260506173101 51 258 6.1 12.2 0.00 0.01 0.01 78 1005.5
20260506173000 52 246 7.0 12.2 0.00 0.01 0.01 78 1005.5
20260506172901 52 240 7.0 12.2 0.00 0.01 0.01 78 1005.4
20260506172801 52 230 7.8 13.0 0.00 0.01 0.01 78 1005.5
20260506172701 52 250 7.8 13.0 0.00 0.01 0.01 78 1005.4
20260506172601 52 272 7.8 13.0 0.00 0.01 0.01 78 1005.4
20260506172501 52 251 8.7 13.9 0.00 0.01 0.01 77 1005.4
20260506172400 52 263 8.7 14.8 0.00 0.01 0.01 78 1005.4
20260506172300 52 242 9.6 14.8 0.00 0.01 0.01 78 1005.4
20260506172200 52 267 9.6 14.8 0.00 0.01 0.01 78 1005.5
20260506172100 52 285 9.6 14.8 0.00 0.01 0.01 77 1005.6
20260506172000 52 261 9.6 14.8 0.00 0.01 0.01 78 1005.3
20260506171901 52 273 9.6 14.8 0.00 0.01 0.01 78 1005.3
20260506171800 52 269 9.6 14.8 0.00 0.01 0.01 78 1005.3
20260506171700 52 253 8.7 14.8 0.00 0.01 0.01 78 1005.4
20260506171600 52 230 8.7 14.8 0.00 0.01 0.01 77 1005.4
20260506171500 52 286 9.6 16.5 0.00 0.01 0.01 78 1005.4
20260506171400 52 268 9.6 16.5 0.00 0.01 0.01 78 1005.3
20260506171300 52 250 9.6 16.5 0.00 0.01 0.01 77 1005.4
20260506171200 52 292 9.6 16.5 0.00 0.01 0.01 77 1005.3
20260506171100 52 233 9.6 16.5 0.00 0.01 0.01 78 1005.3
20260506171001 52 248 9.6 16.5 0.00 0.01 0.01 78 1005.5
20260506170901 52 277 9.6 16.5 0.00 0.01 0.01 78 1005.3
20260506170800 52 253 10.4 16.5 0.00 0.01 0.01 78 1005.3
20260506170700 52 252 10.4 16.5 0.00 0.01 0.01 77 1005.3
20260506170600 52 254 10.4 16.5 0.00 0.01 0.01 77 1005.4
20260506170501 52 263 10.4 16.5 0.00 0.01 0.01 77 1005.4
20260506170401 52 282 10.4 16.5 0.00 0.02 0.01 78 1005.4
20260506170300 52 256 10.4 16.5 0.00 0.02 0.01 78 1005.6
20260506170200 52 220 10.4 16.5 0.00 0.02 0.01 78 1005.5
20260506170100 52 268 10.4 17.4 0.00 0.02 0.01 78 1005.3
20260506170001 52 210 10.4 17.4 0.00 0.02 0.01 77 1005.3
20260506165901 52 240 10.4 17.4 0.00 0.02 0.01 77 1005.5
20260506165800 52 266 10.4 17.4 0.00 0.02 0.01 77 1005.3
20260506165700 52 269 10.4 17.4 0.00 0.02 0.01 77 1005.2
20260506165600 53 256 10.4 17.4 0.00 0.02 0.01 78 1005.2
20260506165500 53 277 10.4 17.4 0.00 0.02 0.01 77 1005.6
20260506165400 53 255 11.3 18.2 0.00 0.02 0.01 78 1005.2
20260506165300 53 254 11.3 18.2 0.00 0.02 0.01 77 1005.4
20260506165202 53 237 11.3 18.2 0.00 0.02 0.01 78 1005.4
20260506165101 53 269 11.3 18.2 0.00 0.02 0.01 78 1005.2
20260506165001 53 302 12.2 18.2 0.00 0.02 0.01 77 1005.3
20260506164901 53 258 13.0 21.7 0.00 0.02 0.01 77 1005.3
20260506164801 53 256 13.0 21.7 0.00 0.02 0.01 77 1005.3
20260506164700 53 245 13.0 21.7 0.00 0.02 0.01 76 1005.5
20260506164600 53 282 13.0 21.7 0.00 0.02 0.01 76 1005.8
20260506164500 53 244 13.0 21.7 0.00 0.02 0.01 76 1005.8
20260506164400 53 288 12.2 21.7 0.00 0.02 0.01 76 1005.3
20260506164301 53 273 12.2 21.7 0.00 0.02 0.01 77 1005.3
20260506164200 53 236 12.2 21.7 0.00 0.02 0.01 76 1005.3
20260506164100 53 292 11.3 21.7 0.00 0.02 0.01 76 1005.5
20260506164001 53 277 11.3 21.7 0.00 0.02 0.01 77 1005.5
20260506163901 53 271 11.3 20.0 0.00 0.02 0.01 77 1005.6
20260506163800 53 240 11.3 20.0 0.01 0.02 0.01 77 1005.6
20260506163700 53 267 10.4 20.0 0.01 0.02 0.01 78 1005.8
20260506163600 53 242 10.4 20.0 0.01 0.02 0.01 80 1005.4
20260506163500 53 289 9.6 20.0 0.01 0.02 0.01 80 1005.3
20260506163400 53 270 9.6 20.0 0.01 0.02 0.01 79 1005.3
20260506163300 53 247 9.6 20.0 0.01 0.02 0.01 79 1005.3
20260506163200 53 284 9.6 20.0 0.01 0.02 0.01 78 1005.4
20260506163101 53 265 8.7 20.0 0.01 0.02 0.01 79 1005.2
20260506163000 53 281 8.7 20.0 0.01 0.02 0.01 79 1005.3
20260506162901 53 297 7.8 13.0 0.01 0.02 0.01 80 1005.4
20260506162801 53 265 7.8 13.0 0.01 0.02 0.01 81 1005.5
20260506162701 53 282 7.8 12.2 0.01 0.02 0.01 81 1005.2
20260506162600 53 221 7.0 12.2 0.01 0.02 0.01 81 1005.2
20260506162500 53 257 7.0 12.2 0.01 0.02 0.01 82 1005.2
20260506162400 53 269 7.8 12.2 0.01 0.02 0.01 82 1005.1
20260506162300 53 241 7.8 12.2 0.01 0.02 0.01 81 1005.1
20260506162200 53 270 7.8 17.4 0.01 0.02 0.01 81 1005.2
20260506162101 53 289 8.7 17.4 0.01 0.02 0.01 81 1005.1
20260506162000 53 285 8.7 17.4 0.01 0.02 0.01 81 1005.1
20260506161900 53 273 8.7 17.4 0.01 0.02 0.01 82 1005.1
20260506161800 53 268 8.7 17.4 0.01 0.02 0.01 82 1005.2
20260506161700 53 242 9.6 17.4 0.01 0.02 0.01 82 1005.1
20260506161600 53 264 9.6 17.4 0.01 0.02 0.01 81 1005.2
20260506161500 53 263 10.4 17.4 0.01 0.02 0.01 81 1005.1
20260506161400 53 248 10.4 17.4 0.01 0.02 0.01 81 1005.2
20260506161301 53 260 10.4 17.4 0.01 0.02 0.01 81 1005.3
20260506161201 53 263 10.4 16.5 0.01 0.02 0.01 82 1005.3
20260506161124 53 262 9.6 16.5 0.01 0.02 0.01 82 1005.2
20260506161120 53 269 10.4 16.5 0.01 0.02 0.01 82 1005.2
20260506161112 53 269 9.6 16.5 0.01 0.02 0.01 82 1005.1
20260506160801 53 270 9.6 16.5 0.01 0.02 0.01 83 1005.0
20260506160701 53 266 9.6 16.5 0.01 0.02 0.01 83 1005.2
20260506160601 53 294 8.7 16.5 0.01 0.02 0.01 84 1005.0
20260506160503 53 230 8.7 16.5 0.01 0.02 0.01 84 1005.0
20260506160400 53 255 8.7 16.5 0.01 0.02 0.01 85 1005.1
20260506160301 53 263 8.7 16.5 0.01 0.02 0.01 84 1004.9
20260506160201 53 268 9.6 16.5 0.01 0.02 0.01 85 1004.7
20260506160124 53 238 9.6 16.5 0.01 0.02 0.01 85 1005.0
20260506160120 53 278 8.7 14.8 0.01 0.02 0.01 85 1004.9
20260506160111 52 274 8.7 14.8 0.01 0.02 0.01 84 1004.9
20260506155801 52 224 8.7 14.8 0.01 0.02 0.01 84 1004.9
20260506155701 52 273 8.7 14.8 0.01 0.02 0.01 84 1004.7
20260506155601 52 257 9.6 15.6 0.01 0.02 0.01 84 1004.7
20260506155501 52 273 9.6 15.6 0.01 0.02 0.01 83 1004.9
20260506155401 53 268 9.6 15.6 0.01 0.02 0.01 84 1005.0
20260506155305 53 265 9.6 17.4 0.01 0.02 0.01 83 1004.9
20260506155201 53 268 9.6 17.4 0.01 0.02 0.01 83 1005.1
20260506155124 53 272 10.4 17.4 0.01 0.02 0.01 83 1004.9
20260506155120 53 229 9.6 17.4 0.01 0.02 0.01 83 1004.9
20260506155111 53 264 10.4 17.4 0.01 0.02 0.01 82 1004.6
20260506154756 53 283 10.4 17.4 0.01 0.02 0.01 82 1004.6
20260506154656 53 270 10.4 17.4 0.01 0.02 0.01 81 1004.5
20260506154557 53 302 11.3 17.4 0.01 0.02 0.01 81 1004.5
20260506154458 53 271 11.3 17.4 0.01 0.02 0.01 80 1004.5
20260506154401 54 263 11.3 20.0 0.01 0.02 0.01 80 1004.7
20260506154356 54 250 11.3 20.0 0.01 0.02 0.01 80 1004.6
20260506154256 54 268 11.3 20.0 0.01 0.02 0.01 79 1004.6
20260506154156 54 282 11.3 20.9 0.01 0.02 0.01 78 1004.6
20260506154054 55 263 11.3 20.9 0.01 0.02 0.01 77 1004.7
20260506153954 55 251 12.2 21.7 0.01 0.02 0.01 76 1004.6
20260506153900 56 276 12.2 21.7 0.01 0.02 0.00 75 1004.6
20260506153854 56 273 12.2 22.6 0.01 0.02 0.00 75 1004.6
20260506153752 56 292 13.0 22.6 0.00 0.01 0.00 74 1004.7
20260506153652 57 258 13.0 29.5 0.00 0.01 0.00 73 1004.6
20260506153552 57 277 13.0 29.5 0.00 0.01 0.00 70 1004.6
20260506153453 58 257 12.2 29.5 0.00 0.01 0.00 69 1004.5
20260506153401 58 265 12.2 29.5 0.00 0.01 0.00 67 1004.5
20260506153353 58 248 11.3 29.5 0.00 0.01 0.00 67 1004.5
20260506153253 59 243 11.3 29.5 0.00 0.01 0.00 66 1004.7
20260506153152 60 250 9.6 29.5 0.00 0.01 0.00 65 1004.5
20260506153052 60 283 8.7 29.5 0.00 0.01 0.00 63 1004.3
20260506152952 61 220 7.8 29.5 0.00 0.01 0.00 62 1004.5
20260506152900 62 286 7.8 29.5 0.00 0.01 0.00 62 1004.5
20260506152852 62 331 7.8 29.5 0.00 0.01 0.00 62 1004.7
20260506152752 62 234 6.1 29.5 0.00 0.01 0.00 62 1004.3
20260506152652 62 265 5.2 18.2 0.00 0.01 0.00 63 1003.7
20260506152628 63 227 4.3 9.6 0.00 0.01 0.00 62 1003.4
20260506152621 63 211 4.3 10.4 0.00 0.01 0.00 63 1003.7
20260506152617 63 219 4.3 9.6 0.00 0.01 0.00 62 1003.4
20260506152347 63 205 4.3 9.6 0.00 0.01 0.00 62 1003.3
20260506152246 63 220 4.3 9.6 0.00 0.01 0.00 62 1003.2
20260506152145 63 223 4.3 9.6 0.00 0.01 0.00 62 1003.3
20260506152042 63 234 4.3 9.6 0.00 0.01 0.00 62 1003.3
20260506151945 63 214 3.5 9.6 0.00 0.01 0.00 62 1003.2
20260506151901 63 210 3.5 9.6 0.00 0.01 0.00 62 1003.2
20260506151843 64 212 3.5 9.6 0.00 0.01 0.00 62 1003.2
20260506151742 64 219 3.5 8.7 0.00 0.01 0.00 62 1003.2
20260506151639 64 196 2.6 7.8 0.00 0.01 0.00 62 1003.1
20260506151541 64 203 2.6 7.8 0.00 0.01 0.00 61 1003.1
20260506151442 64 204 2.6 7.8 0.00 0.01 0.00 61 1003.1
20260506151401 64 148 2.6 7.8 0.00 0.01 0.00 62 1003.1
20260506151340 64 145 1.7 7.0 0.00 0.01 0.00 61 1003.0
20260506151240 64 126 1.7 7.0 0.00 0.01 0.00 62 1002.8
20260506151139 64 221 1.7 7.0 0.00 0.01 0.00 61 1002.8
20260506151125 64 192 1.7 7.0 0.00 0.01 0.00 61 1002.7
20260506151119 64 188 1.7 7.0 0.00 0.01 0.00 61 1002.7
20260506151115 64 191 1.7 7.0 0.00 0.01 0.00 61 1002.7
20260506150836 64 192 2.6 7.0 0.00 0.01 0.00 62 1002.6
20260506150734 64 132 2.6 6.1 0.00 0.01 0.00 63 1002.6
20260506150634 64 119 2.6 8.7 0.00 0.01 0.00 62 1002.6
20260506150533 64 120 2.6 8.7 0.00 0.01 0.00 63 1002.7
20260506150431 64 117 3.5 8.7 0.00 0.01 0.00 62 1002.6
20260506150400 64 117 3.5 8.7 0.00 0.01 0.00 63 1002.6
20260506150330 64 117 3.5 8.7 0.00 0.01 0.00 63 1002.6
20260506150229 64 196 2.6 8.7 0.00 0.01 0.00 64 1002.6
20260506150129 64 237 2.6 8.7 0.00 0.01 0.00 64 1002.7
20260506150029 64 236 2.6 8.7 0.00 0.01 0.00 64 1002.6
20260506145929 64 197 2.6 8.7 0.00 0.01 0.00 64 1002.7
20260506145902 64 197 2.6 8.7 0.00 0.01 0.00 63 1002.7
20260506145829 64 184 2.6 8.7 0.00 0.01 0.00 63 1002.7
20260506145729 64 150 2.6 8.7 0.00 0.01 0.00 64 1002.7
20260506145629 64 119 2.6 6.1 0.00 0.01 0.00 64 1002.7
20260506145530 64 190 2.6 6.1 0.00 0.01 0.00 65 1002.6
20260506145434 63 195 2.6 6.1 0.00 0.01 0.00 64 1002.7
20260506145402 63 202 2.6 6.1 0.00 0.01 0.00 65 1002.7
20260506145329 63 216 2.6 6.1 0.00 0.01 0.00 65 1002.7
20260506145229 63 200 3.5 8.7 0.00 0.01 0.00 66 1002.7
20260506145129 63 200 3.5 8.7 0.00 0.01 0.00 66 1002.7
20260506145125 62 205 3.5 8.7 0.00 0.01 0.00 65 1002.7
20260506145119 63 194 3.5 8.7 0.00 0.01 0.00 67 1002.7
20260506145115 63 172 3.5 8.7 0.00 0.01 0.00 66 1002.7
20260506144829 62 208 3.5 8.7 0.00 0.01 0.00 65 1002.7
20260506144729 62 198 3.5 8.7 0.00 0.01 0.00 66 1002.7
20260506144633 62 142 3.5 8.7 0.00 0.01 0.00 67 1002.7
20260506144628 62 177 3.5 8.7 0.00 0.01 0.00 68 1002.8
20260506144620 62 171 3.5 8.7 0.00 0.01 0.00 67 1002.8
20260506144616 62 153 3.5 8.7 0.00 0.01 0.00 67 1002.7
20260506144329 62 130 3.5 8.7 0.00 0.01 0.00 67 1002.7
20260506144229 62 169 2.6 6.1 0.00 0.01 0.00 68 1002.7
20260506144129 62 178 2.6 6.1 0.00 0.01 0.00 67 1002.7
20260506144028 62 153 2.6 6.1 0.00 0.01 0.00 68 1002.7
20260506143901 61 107 2.6 6.1 0.00 0.01 0.00 66 1002.6
20260506143828 61 124 1.7 6.1 0.00 0.01 0.00 67 1002.6
20260506143728 61 140 1.7 5.2 0.00 0.01 0.00 67 1002.6
20260506143628 61 131 1.7 5.2 0.00 0.01 0.00 66 1002.6
20260506143528 61 127 1.7 5.2 0.00 0.01 0.00 66 1002.6
20260506143429 61 137 0.9 4.3 0.00 0.01 0.00 68 1002.6
20260506143400 61 128 0.9 4.3 0.00 0.01 0.00 68 1002.6
20260506143328 61 123 0.9 4.3 0.00 0.01 0.00 69 1002.6
20260506143225 61 115 0.9 4.3 0.00 0.01 0.00 69 1002.6
20260506143124 61 146 0.9 4.3 0.00 0.01 0.00 70 1002.6
20260506143024 61 165 0.9 4.3 0.00 0.01 0.00 69 1002.7
20260506142922 61 165 0.9 4.3 0.00 0.01 0.00 69 1002.7
20260506142906 61 166 0.9 4.3 0.00 0.01 0.00 70 1002.7
20260506142822 61 166 0.9 4.3 0.00 0.01 0.00 70 1002.7
20260506142722 61 166 0.9 4.3 0.00 0.01 0.00 69 1002.7
20260506142620 61 166 0.9 4.3 0.00 0.01 0.00 70 1002.7
20260506142518 60 162 0.9 4.3 0.00 0.01 0.00 72 1002.7
20260506142402 60 292 1.7 6.1 0.00 0.01 0.00 71 1002.7
20260506142316 60 292 1.7 6.1 0.00 0.01 0.00 71 1002.7
20260506142213 60 292 1.7 6.1 0.00 0.01 0.00 69 1002.6
20260506142114 60 292 2.6 7.8 0.00 0.01 0.00 69 1002.7
20260506142012 60 292 2.6 7.8 0.00 0.01 0.00 69 1002.6
20260506141910 60 292 3.5 7.8 0.00 0.01 0.00 69 1002.6
20260506141901 60 285 3.5 7.8 0.00 0.01 0.00 71 1002.6
20260506141810 60 285 3.5 7.8 0.00 0.01 0.00 68 1002.7
20260506141707 60 140 3.5 7.8 0.00 0.01 0.00 69 1002.8
20260506141606 60 140 3.5 7.8 0.00 0.01 0.00 69 1003.0
20260506141506 60 227 3.5 7.8 0.00 0.01 0.00 70 1003.1
20260506141405 60 223 3.5 7.8 0.00 0.01 0.00 70 1003.2
20260506141401 60 227 3.5 7.8 0.00 0.01 0.00 70 1003.2
20260506141304 60 234 3.5 8.7 0.00 0.01 0.00 69 1003.3
20260506141204 60 237 3.5 8.7 0.00 0.01 0.00 69 1003.3
20260506141104 60 249 3.5 8.7 0.00 0.01 0.00 69 1003.4
20260506141004 60 205 3.5 8.7 0.00 0.01 0.00 69 1003.4
20260506140901 60 205 3.5 8.7 0.00 0.01 0.00 68 1003.4
20260506140804 60 223 3.5 8.7 0.00 0.01 0.00 68 1003.5
20260506140704 60 225 3.5 8.7 0.00 0.01 0.00 67 1003.4
20260506140620 60 236 3.5 8.7 0.00 0.01 0.00 67 1003.4
20260506140616 60 192 4.3 8.7 0.00 0.01 0.00 68 1003.3
20260506140612 60 207 4.3 8.7 0.00 0.01 0.00 68 1003.3
20260506140302 60 238 4.3 8.7 0.00 0.01 0.00 67 1003.3
20260506140202 60 178 4.3 8.7 0.00 0.01 0.00 66 1003.2
20260506140002 60 193 4.3 8.7 0.00 0.01 0.00 66 1003.3
20260506135901 60 169 3.5 8.7 0.00 0.01 0.00 67 1003.2
20260506135801 60 154 3.5 8.7 0.00 0.01 0.00 69 1003.3
20260506135701 60 129 3.5 8.7 0.00 0.01 0.00 67 1003.3
20260506135601 60 211 3.5 8.7 0.00 0.01 0.00 66 1003.2
20260506135501 60 167 3.5 7.8 0.00 0.01 0.00 68 1003.3
20260506135401 59 169 3.5 7.0 0.00 0.01 0.00 69 1003.3
20260506135301 59 209 3.5 10.4 0.00 0.01 0.00 69 1003.3
20260506135200 59 136 3.5 10.4 0.00 0.01 0.00 70 1003.3
20260506135100 59 173 3.5 10.4 0.00 0.01 0.00 70 1003.4
20260506135001 59 190 3.5 10.4 0.00 0.01 0.00 69 1003.4
20260506134903 59 177 4.3 10.4 0.00 0.01 0.00 68 1003.5
20260506134801 59 187 4.3 10.4 0.00 0.01 0.00 70 1003.5
20260506134700 59 193 4.3 10.4 0.00 0.01 0.00 69 1003.6
20260506134600 59 187 4.3 10.4 0.00 0.01 0.00 69 1003.6
20260506134500 59 181 4.3 10.4 0.00 0.01 0.00 68 1003.6
20260506134401 59 195 3.5 10.4 0.00 0.01 0.00 67 1003.5
20260506134301 60 175 3.5 9.6 0.00 0.01 0.00 67 1003.5
20260506134201 60 221 3.5 9.6 0.00 0.01 0.00 67 1003.5
20260506134101 60 153 2.6 9.6 0.00 0.01 0.00 66 1003.5
20260506134001 60 142 2.6 8.7 0.00 0.01 0.00 67 1003.5
20260506133901 60 158 2.6 8.7 0.00 0.01 0.00 68 1003.5
20260506133800 60 125 1.7 8.7 0.00 0.01 0.00 69 1003.5
20260506133701 60 119 0.9 3.5 0.00 0.01 0.00 69 1003.5
20260506133601 60 121 0.9 3.5 0.00 0.01 0.00 68 1003.5
20260506133501 60 132 0.9 2.6 0.00 0.01 0.00 69 1003.4
20260506133403 60 134 0.9 2.6 0.00 0.01 0.00 69 1003.4
20260506133301 60 134 0.9 2.6 0.00 0.01 0.00 68 1003.4
20260506133201 60 131 0.9 2.6 0.00 0.01 0.00 68 1003.4
20260506133121 60 132 0.9 2.6 0.00 0.01 0.00 69 1003.4
20260506133117 60 179 0.9 2.6 0.00 0.01 0.00 71 1003.4
20260506133113 60 179 0.9 2.6 0.00 0.01 0.00 69 1003.4
20260506132851 60 179 1.7 5.2 0.00 0.01 0.00 69 1003.3
20260506132843 60 179 0.9 2.6 0.00 0.01 0.00 69 1003.4
20260506132839 60 179 0.9 3.5 0.00 0.01 0.00 69 1003.4
20260506132620 60 179 1.7 5.2 0.00 0.01 0.00 69 1003.4
20260506132616 60 179 1.7 5.2 0.00 0.01 0.00 70 1003.3
20260506132612 60 179 1.7 5.2 0.00 0.01 0.00 69 1003.3
20260506132301 60 180 1.7 5.2 0.00 0.01 0.00 69 1003.3
20260506132201 60 180 1.7 5.2 0.00 0.01 0.00 68 1003.3
20260506132101 60 180 1.7 5.2 0.00 0.01 0.00 68 1003.3
20260506132001 60 179 1.7 5.2 0.00 0.01 0.00 68 1003.3
20260506131900 60 179 1.7 5.2 0.00 0.01 0.00 68 1003.3
20260506131801 60 179 1.7 5.2 0.00 0.01 0.00 68 1003.3
20260506131701 60 179 1.7 5.2 0.00 0.01 0.00 67 1003.3
20260506131601 60 186 1.7 4.3 0.00 0.01 0.00 67 1003.3
20260506131501 60 165 0.9 4.3 0.00 0.01 0.00 67 1003.3
20260506131401 60 165 0.9 4.3 0.00 0.01 0.00 67 1003.3
20260506131304 60 166 0.9 4.3 0.00 0.01 0.00 67 1003.2
20260506131200 60 166 0.9 4.3 0.00 0.01 0.00 67 1003.2
20260506131101 60 166 0.9 4.3 0.00 0.01 0.00 67 1003.1
20260506131001 60 150 0.9 4.3 0.00 0.01 0.00 66 1003.1
20260506130901 60 150 0.9 3.5 0.00 0.01 0.00 67 1003.0
20260506130804 60 121 0.9 3.5 0.00 0.01 0.00 66 1003.0
20260506130700 60 104 0.9 3.5 0.00 0.01 0.00 65 1002.8
20260506130621 61 103 0.9 3.5 0.00 0.01 0.00 65 1002.8
20260506130617 61 103 0.9 3.5 0.00 0.01 0.00 65 1002.7
20260506130613 61 103 0.9 3.5 0.00 0.01 0.00 66 1002.7
20260506130301 61 103 0.9 3.5 0.00 0.01 0.00 66 1002.7
20260506130201 61 100 0.9 3.5 0.00 0.01 0.00 67 1002.7
20260506130120 61 130 0.9 3.5 0.00 0.01 0.00 67 1002.7
20260506130116 61 132 0.9 3.5 0.00 0.01 0.00 66 1002.6
20260506130112 61 132 0.9 3.5 0.00 0.01 0.00 67 1002.6
20260506125801 61 75 0.9 3.5 0.00 0.01 0.00 66 1002.6
20260506125701 61 88 0.9 3.5 0.00 0.01 0.00 65 1002.6
20260506125601 61 98 0.9 3.5 0.00 0.01 0.00 65 1002.6
20260506125501 61 93 0.9 3.5 0.00 0.01 0.00 65 1002.7
20260506125401 61 93 0.9 3.5 0.00 0.01 0.00 64 1002.6
20260506125301 61 93 0.9 3.5 0.00 0.01 0.00 65 1002.6
20260506125201 61 93 0.9 3.5 0.00 0.01 0.00 64 1002.6
20260506125101 62 91 0.9 3.5 0.00 0.01 0.00 63 1002.6
20260506125000 62 91 0.9 3.5 0.00 0.01 0.00 62 1002.6
20260506124900 62 92 0.9 3.5 0.00 0.01 0.00 62 1002.6
20260506124853 62 109 0.9 2.6 0.00 0.01 0.00 61 1002.7
20260506124848 62 90 0.9 3.5 0.00 0.01 0.00 62 1002.6
20260506124839 62 94 0.9 3.5 0.00 0.01 0.00 60 1002.6
20260506124619 62 94 0.9 3.5 0.00 0.01 0.00 60 1002.6
20260506124615 62 106 0.9 2.6 0.00 0.01 0.00 60 1002.6
20260506124611 62 109 0.9 2.6 0.00 0.01 0.00 61 1002.7
20260506124300 62 109 0.0 2.6 0.00 0.01 0.00 62 1002.7
20260506124200 62 109 0.0 2.6 0.00 0.01 0.00 61 1002.7
20260506124122 62 119 0.0 1.7 0.00 0.01 0.00 60 1002.7
20260506124118 62 106 0.0 1.7 0.00 0.01 0.00 61 1002.8
20260506124114 62 107 0.0 1.7 0.00 0.01 0.00 62 1002.8
20260506123801 62 110 0.0 1.7 0.00 0.01 0.00 62 1002.8
20260506123700 62 111 0.0 1.7 0.00 0.01 0.00 62 1002.8
20260506123600 62 111 0.0 2.6 0.00 0.01 0.00 60 1002.8
20260506123500 62 111 0.9 2.6 0.00 0.01 0.00 60 1002.8
20260506123401 62 111 0.9 3.5 0.00 0.01 0.00 61 1002.8
20260506123301 62 111 0.9 3.5 0.00 0.01 0.00 61 1002.8
20260506123202 62 112 0.9 3.5 0.00 0.01 0.00 61 1003.0
20260506123101 63 111 0.9 3.5 0.00 0.01 0.00 61 1002.8
20260506123001 62 112 0.9 3.5 0.00 0.01 0.00 61 1002.8
20260506122901 63 112 0.9 3.5 0.00 0.01 0.00 60 1002.8
20260506122801 63 112 0.9 3.5 0.00 0.01 0.00 60 1002.8
20260506122701 63 112 0.9 3.5 0.00 0.01 0.00 60 1002.8
20260506122601 63 111 0.9 3.5 0.00 0.01 0.00 60 1002.8
20260506122501 63 88 0.9 3.5 0.00 0.01 0.00 59 1002.8
20260506122402 63 69 0.9 3.5 0.00 0.01 0.00 59 1003.0
20260506122301 63 68 0.9 3.5 0.00 0.01 0.00 58 1003.0
20260506122201 63 68 0.9 3.5 0.00 0.01 0.00 59 1003.0
20260506122101 63 68 0.9 3.5 0.00 0.01 0.00 59 1002.8
20260506122001 63 67 0.9 3.5 0.00 0.01 0.00 58 1003.0
20260506121901 63 65 0.9 3.5 0.00 0.01 0.00 58 1003.0
20260506121801 63 65 0.9 3.5 0.00 0.01 0.00 58 1003.0
20260506121700 63 65 0.9 3.5 0.00 0.01 0.00 58 1003.0
20260506121600 63 65 0.9 4.3 0.00 0.01 0.00 58 1003.1
20260506121500 63 88 0.9 5.2 0.00 0.01 0.00 58 1003.1
20260506121400 63 90 0.9 5.2 0.00 0.01 0.00 59 1003.1
20260506121301 63 90 0.9 5.2 0.00 0.01 0.00 59 1003.1
20260506121159 63 91 0.9 5.2 0.00 0.01 0.00 59 1003.1
20260506121059 63 91 0.9 5.2 0.00 0.01 0.00 58 1003.1
20260506121000 63 91 0.9 5.2 0.00 0.01 0.00 60 1003.1
20260506120902 63 91 0.9 5.2 0.00 0.01 0.00 59 1003.1
20260506120858 63 91 0.9 5.2 0.00 0.01 0.00 59 1003.1
20260506120756 63 64 0.9 5.2 0.00 0.01 0.00 58 1003.1
20260506120650 63 83 0.9 5.2 0.00 0.01 0.00 59 1003.1
20260506120550 63 80 0.9 5.2 0.00 0.01 0.00 60 1003.1
20260506120449 63 87 0.9 3.5 0.00 0.01 0.00 58 1003.0
20260506120402 63 87 0.9 3.5 0.00 0.01 0.00 58 1003.0
20260506120349 63 87 0.9 3.5 0.00 0.01 0.00 58 1003.0
20260506120249 63 87 0.9 3.5 0.00 0.01 0.00 58 1003.0
20260506120144 63 87 0.9 3.5 0.00 0.01 0.00 58 1002.8
20260506120044 63 87 1.7 4.3 0.00 0.01 0.00 59 1002.8
20260506115944 63 86 1.7 4.3 0.00 0.01 0.00 58 1002.8
20260506115903 63 86 1.7 4.3 0.00 0.01 0.00 57 1002.8
20260506115844 63 86 1.7 4.3 0.00 0.01 0.00 57 1003.0
20260506115744 63 86 1.7 4.3 0.00 0.01 0.00 58 1003.0
20260506115641 63 84 1.7 4.3 0.00 0.01 0.00 58 1003.1
20260506115625 63 88 1.7 4.3 0.00 0.01 0.00 57 1003.1
20260506115617 63 53 1.7 4.3 0.00 0.01 0.00 57 1003.1
20260506115613 63 28 1.7 4.3 0.00 0.01 0.00 57 1003.1
20260506115340 63 88 1.7 4.3 0.00 0.01 0.00 57 1003.1
20260506115240 63 89 1.7 4.3 0.00 0.01 0.00 57 1003.1
20260506115140 63 44 1.7 4.3 0.00 0.01 0.00 58 1003.1
20260506115040 63 115 1.7 4.3 0.00 0.01 0.00 58 1003.0
20260506114937 63 114 1.7 4.3 0.00 0.01 0.00 58 1003.0
20260506114903 63 93 1.7 5.2 0.00 0.01 0.00 58 1003.0
20260506114838 63 69 1.7 5.2 0.00 0.01 0.00 58 1003.0
20260506114738 63 85 1.7 5.2 0.00 0.01 0.00 57 1002.8
20260506114638 63 75 1.7 5.2 0.00 0.01 0.00 59 1003.0
20260506114538 63 22 1.7 5.2 0.00 0.01 0.00 58 1003.0
20260506114435 63 62 1.7 5.2 0.00 0.01 0.00 59 1003.0
20260506114401 63 34 1.7 5.2 0.00 0.01 0.00 57 1003.0
20260506114335 63 28 1.7 5.2 0.00 0.01 0.00 57 1003.0
20260506114236 63 28 1.7 5.2 0.00 0.01 0.00 57 1003.1
20260506114136 63 80 1.7 5.2 0.00 0.01 0.00 57 1003.1
20260506114036 63 80 1.7 5.2 0.00 0.01 0.00 57 1003.1
20260506113936 63 80 1.7 5.2 0.00 0.01 0.00 57 1003.1
20260506113901 63 9 1.7 5.2 0.00 0.01 0.00 57 1003.2
20260506113833 63 27 1.7 5.2 0.00 0.01 0.00 57 1003.2
20260506113733 63 98 1.7 5.2 0.00 0.01 0.00 57 1003.2
20260506113631 63 98 1.7 5.2 0.00 0.01 0.00 59 1003.2
20260506113529 63 97 1.7 5.2 0.00 0.01 0.00 57 1003.2
20260506113429 63 96 1.7 5.2 0.00 0.01 0.00 57 1003.2
20260506113329 63 26 1.7 5.2 0.00 0.01 0.00 57 1003.2
20260506113229 63 26 1.7 5.2 0.00 0.01 0.00 58 1003.2
20260506113129 63 39 1.7 5.2 0.00 0.01 0.00 58 1003.2
20260506113029 63 87 1.7 5.2 0.00 0.01 0.00 58 1003.2
20260506112929 63 59 0.9 5.2 0.00 0.01 0.00 59 1003.2
20260506112850 63 42 0.9 4.3 0.00 0.01 0.00 59 1003.2
20260506112829 63 73 0.9 2.6 0.00 0.01 0.00 59 1003.2
20260506112729 63 53 0.9 2.6 0.00 0.01 0.00 59 1003.2
20260506112629 63 28 0.9 2.6 0.00 0.01 0.00 59 1003.2
20260506112528 63 122 0.9 2.6 0.00 0.01 0.00 60 1003.2
20260506112429 63 122 0.9 2.6 0.00 0.01 0.00 58 1003.3
20260506112329 63 126 0.9 3.5 0.00 0.01 0.00 58 1003.3
20260506112229 63 123 0.9 3.5 0.00 0.01 0.00 57 1003.3
20260506112129 63 126 0.9 3.5 0.00 0.01 0.00 58 1003.3
20260506112029 63 126 0.9 3.5 0.00 0.01 0.00 58 1003.3
20260506111929 63 73 0.9 3.5 0.00 0.01 0.00 58 1003.3
20260506111840 63 74 1.7 5.2 0.00 0.01 0.00 58 1003.3
20260506111829 63 73 1.7 5.2 0.00 0.01 0.00 58 1003.3
20260506111729 63 74 1.7 5.2 0.00 0.01 0.00 59 1003.3
20260506111629 63 88 1.7 5.2 0.00 0.01 0.00 58 1003.3
20260506111604 63 78 1.7 8.7 0.00 0.01 0.00 57 1003.2
20260506111554 63 94 1.7 5.2 0.00 0.01 0.00 55 1003.2
20260506111551 63 94 1.7 8.7 0.00 0.01 0.00 57 1003.2
20260506111329 63 78 1.7 8.7 0.00 0.01 0.00 57 1003.2
20260506111227 63 338 1.7 8.7 0.00 0.01 0.00 56 1003.2
20260506111128 63 113 2.6 8.7 0.00 0.01 0.00 57 1003.2
20260506111027 63 92 2.6 9.6 0.00 0.01 0.00 58 1003.2
20260506110927 63 97 2.6 9.6 0.00 0.01 0.00 57 1003.2
20260506110839 63 86 2.6 9.6 0.00 0.01 0.00 57 1003.2
20260506110825 63 103 2.6 9.6 0.00 0.01 0.00 57 1003.2
20260506110724 63 103 2.6 9.6 0.00 0.01 0.00 59 1003.2
20260506110624 63 95 2.6 9.6 0.00 0.01 0.00 57 1003.2
20260506110524 63 105 2.6 9.6 0.00 0.01 0.00 58 1003.2
20260506110422 63 97 2.6 9.6 0.00 0.01 0.00 60 1003.2
20260506110340 63 77 2.6 9.6 0.00 0.01 0.00 60 1003.2
20260506110321 63 103 2.6 9.6 0.00 0.01 0.00 60 1003.2
20260506110221 63 71 2.6 9.6 0.00 0.01 0.00 60 1003.1
20260506110122 63 51 2.6 9.6 0.00 0.01 0.00 60 1003.1
20260506110022 63 127 1.7 7.0 0.00 0.01 0.00 58 1003.2
20260506105920 63 100 2.6 7.0 0.00 0.01 0.00 58 1003.2
20260506105840 63 107 2.6 7.0 0.00 0.01 0.00 60 1003.2
20260506105819 63 146 2.6 7.0 0.00 0.01 0.00 59 1003.2
20260506105717 63 99 2.6 5.2 0.00 0.01 0.00 59 1003.2
20260506105617 63 108 2.6 5.2 0.00 0.01 0.00 59 1003.2
20260506105516 63 37 2.6 5.2 0.00 0.01 0.00 58 1003.2
20260506105416 63 96 2.6 6.1 0.00 0.01 0.00 57 1003.2
20260506105340 63 63 2.6 6.1 0.00 0.01 0.00 59 1003.2
20260506105316 63 74 2.6 8.7 0.00 0.01 0.00 58 1003.2
20260506105216 63 71 3.5 8.7 0.00 0.01 0.00 59 1003.2
20260506105115 63 82 2.6 8.7 0.00 0.01 0.00 60 1003.2
20260506105102 63 0 2.6 8.7 0.00 0.01 0.00 60 1003.3
20260506105055 63 63 3.5 8.7 0.00 0.01 0.00 61 1003.3
20260506105051 63 51 3.5 8.7 0.00 0.01 0.00 62 1003.3
20260506104812 63 337 2.6 8.7 0.00 0.01 0.00 60 1003.3
20260506104711 63 15 3.5 8.7 0.00 0.01 0.00 59 1003.3
20260506104609 63 69 3.5 8.7 0.00 0.01 0.00 59 1003.3
20260506104509 63 44 2.6 8.7 0.00 0.01 0.00 61 1003.3
20260506104410 63 35 2.6 8.7 0.00 0.01 0.00 61 1003.3
20260506104339 63 54 2.6 8.7 0.00 0.01 0.00 62 1003.3
20260506104310 63 28 2.6 8.7 0.00 0.01 0.00 62 1003.3
20260506104209 63 24 2.6 8.7 0.00 0.01 0.00 62 1003.3
20260506104109 63 329 2.6 5.2 0.00 0.01 0.00 61 1003.4
20260506104003 63 355 2.6 5.2 0.00 0.01 0.00 63 1003.4
20260506103903 62 79 2.6 5.2 0.00 0.01 0.00 62 1003.4
20260506103840 62 80 2.6 5.2 0.00 0.01 0.00 60 1003.4
20260506103802 62 62 2.6 5.2 0.00 0.01 0.00 60 1003.4
20260506103702 62 19 1.7 5.2 0.00 0.01 0.00 63 1003.5
20260506103601 62 312 1.7 5.2 0.00 0.01 0.00 63 1003.6
20260506103501 62 312 1.7 5.2 0.00 0.01 0.00 63 1003.6
20260506103401 62 313 1.7 5.2 0.00 0.01 0.00 64 1003.6
20260506103338 62 313 1.7 5.2 0.00 0.01 0.00 66 1003.7
20260506103301 62 319 1.7 4.3 0.00 0.01 0.00 66 1003.7
20260506103201 62 336 1.7 4.3 0.00 0.01 0.00 64 1003.7
20260506103101 62 53 0.9 4.3 0.00 0.01 0.00 64 1003.7
20260506103001 62 186 0.9 3.5 0.00 0.01 0.00 65 1003.8
20260506102901 62 186 1.7 3.5 0.00 0.01 0.00 64 1003.8
20260506102835 62 186 1.7 3.5 0.00 0.01 0.00 64 1003.9
20260506102802 62 186 1.7 3.5 0.00 0.01 0.00 65 1003.9
20260506102701 62 113 1.7 3.5 0.00 0.01 0.00 63 1003.8
20260506102601 62 113 1.7 3.5 0.00 0.01 0.00 64 1003.8
20260506102501 62 113 1.7 5.2 0.00 0.01 0.00 64 1003.8
20260506102401 62 113 1.7 5.2 0.00 0.01 0.00 65 1003.8
20260506102336 62 112 1.7 5.2 0.00 0.01 0.00 65 1003.9
20260506102301 62 112 1.7 5.2 0.00 0.01 0.00 64 1003.9
20260506102201 62 103 1.7 5.2 0.00 0.01 0.00 66 1003.9
20260506102101 62 101 1.7 5.2 0.00 0.01 0.00 64 1003.9
20260506102001 62 98 1.7 5.2 0.00 0.01 0.00 63 1003.9
20260506101859 62 205 1.7 5.2 0.00 0.01 0.00 65 1003.9
20260506101836 62 157 1.7 5.2 0.00 0.01 0.00 65 1003.9
20260506101757 62 112 1.7 5.2 0.00 0.01 0.00 63 1003.9
20260506101658 62 111 1.7 5.2 0.00 0.01 0.00 63 1003.9
20260506101557 62 111 1.7 5.2 0.00 0.01 0.00 63 1003.9
20260506101456 62 92 1.7 6.1 0.00 0.01 0.00 62 1003.9
20260506101356 62 93 1.7 6.1 0.00 0.01 0.00 63 1003.9
20260506101335 62 86 1.7 6.1 0.00 0.01 0.00 63 1003.9
20260506101256 62 119 1.7 6.1 0.00 0.01 0.00 64 1003.9
20260506101156 62 88 1.7 6.1 0.00 0.01 0.00 63 1004.0
20260506101106 62 71 0.9 6.1 0.00 0.01 0.00 65 1004.0
20260506101056 62 96 1.7 6.1 0.00 0.01 0.00 63 1004.0
20260506101051 62 115 1.7 6.1 0.00 0.01 0.00 63 1004.0
20260506101047 62 71 0.9 6.1 0.00 0.01 0.00 64 1004.0
20260506100753 62 98 1.7 6.1 0.00 0.01 0.00 64 1004.0
20260506100653 62 85 1.7 6.1 0.00 0.01 0.00 66 1004.0
20260506100553 61 96 0.9 6.1 0.00 0.01 0.00 67 1004.0
20260506100451 61 196 0.9 4.3 0.00 0.01 0.00 67 1004.0
20260506100352 61 196 0.9 4.3 0.00 0.01 0.00 67 1004.0
20260506100336 61 197 0.9 4.3 0.00 0.01 0.00 66 1004.0
20260506100252 61 197 0.9 4.3 0.00 0.01 0.00 66 1004.1
20260506100152 61 197 0.9 4.3 0.00 0.01 0.00 67 1004.1
20260506100052 61 196 0.9 4.3 0.00 0.01 0.00 67 1004.1
20260506095950 61 189 0.9 4.3 0.00 0.01 0.00 67 1004.1
20260506095850 60 189 0.9 4.3 0.00 0.01 0.00 66 1004.1
20260506095831 60 189 0.9 4.3 0.00 0.01 0.00 68 1004.1
20260506095747 60 188 0.9 4.3 0.00 0.01 0.00 68 1004.0
20260506095645 60 130 0.9 2.6 0.00 0.01 0.00 68 1004.1
20260506095545 60 129 0.9 2.6 0.00 0.01 0.00 67 1004.1
20260506095445 60 129 0.9 2.6 0.00 0.01 0.00 68 1004.1
20260506095345 60 129 0.9 2.6 0.00 0.01 0.00 66 1004.1
20260506095332 60 127 0.9 3.5 0.00 0.01 0.00 66 1004.1
20260506095246 60 127 0.9 3.5 0.00 0.01 0.00 67 1004.0
20260506095146 60 126 0.9 3.5 0.00 0.01 0.00 66 1004.0
20260506095051 60 127 0.9 3.5 0.00 0.01 0.00 66 1004.0
20260506095047 60 136 0.9 3.5 0.00 0.01 0.00 66 1004.0
20260506095043 60 136 0.9 3.5 0.00 0.01 0.00 66 1003.9
20260506094744 60 135 0.9 3.5 0.00 0.01 0.00 65 1003.9
20260506094644 60 135 0.9 3.5 0.00 0.01 0.00 66 1003.9
20260506094543 60 135 0.9 6.1 0.00 0.01 0.00 66 1003.9
20260506094444 60 135 0.9 6.1 0.00 0.01 0.00 64 1003.9
20260506094331 60 136 0.9 6.1 0.00 0.01 0.00 65 1003.9
20260506094244 60 136 1.7 6.1 0.00 0.01 0.00 65 1003.9
20260506094144 60 136 1.7 6.1 0.00 0.01 0.00 65 1004.0
20260506094055 60 151 1.7 6.1 0.00 0.01 0.00 64 1004.0
20260506094051 60 136 1.7 6.1 0.00 0.01 0.00 64 1003.9
20260506094047 60 135 1.7 6.1 0.00 0.01 0.00 65 1003.9
20260506094042 60 150 1.7 6.1 0.00 0.01 0.00 64 1004.0
20260506093823 60 100 1.7 5.2 0.00 0.01 0.00 63 1004.0
20260506093819 60 106 1.7 6.1 0.00 0.01 0.00 64 1004.0
20260506093815 60 98 1.7 6.1 0.00 0.01 0.00 64 1004.0
20260506093550 60 95 1.7 5.2 0.00 0.01 0.00 63 1003.9
20260506093545 60 95 1.7 5.2 0.00 0.01 0.00 63 1003.9
20260506093541 60 100 1.7 5.2 0.00 0.01 0.00 63 1004.0
20260506093239 60 98 1.7 3.5 0.00 0.01 0.00 64 1004.0
20260506093140 60 96 0.9 3.5 0.00 0.01 0.00 63 1003.9
20260506093040 60 88 0.9 3.5 0.00 0.01 0.00 63 1004.0
20260506092940 60 88 0.9 3.5 0.00 0.01 0.00 64 1003.9
20260506092831 60 93 0.9 3.5 0.00 0.01 0.00 67 1004.0
20260506092740 60 97 0.9 3.5 0.00 0.01 0.00 67 1004.0
20260506092639 60 124 0.9 3.5 0.00 0.01 0.00 65 1004.0
20260506092554 60 105 0.9 3.5 0.00 0.01 0.00 64 1004.1
20260506092550 60 110 0.9 2.6 0.00 0.01 0.00 65 1004.0
20260506092545 60 111 0.9 3.5 0.00 0.01 0.00 65 1004.0
20260506092541 60 105 0.9 3.5 0.00 0.01 0.00 66 1004.1
20260506092239 60 96 0.0 3.5 0.00 0.01 0.00 66 1004.0
20260506092139 60 91 0.0 3.5 0.00 0.01 0.00 66 1004.1
20260506092039 60 91 0.0 3.5 0.00 0.01 0.00 65 1004.1
20260506091940 60 91 0.0 3.5 0.00 0.01 0.00 66 1004.1
20260506091832 60 92 0.0 3.5 0.00 0.01 0.00 67 1004.1
20260506091736 60 91 0.9 3.5 0.00 0.01 0.00 67 1004.1
20260506091636 59 90 0.9 3.5 0.00 0.01 0.00 66 1004.1
20260506091535 60 89 0.9 3.5 0.00 0.01 0.00 69 1004.1
20260506091435 59 275 0.9 2.6 0.00 0.01 0.00 69 1004.1
20260506091331 59 275 0.9 2.6 0.00 0.01 0.00 70 1004.1
20260506091235 59 275 0.9 3.5 0.00 0.01 0.00 69 1004.1
20260506091135 59 275 0.9 3.5 0.00 0.01 0.00 68 1004.2
20260506091036 59 275 0.9 3.5 0.00 0.01 0.00 68 1004.2
20260506090936 59 275 0.9 3.5 0.00 0.01 0.00 69 1004.2
20260506090831 59 275 0.9 3.5 0.00 0.01 0.00 69 1004.2
20260506090736 59 275 1.7 3.5 0.00 0.01 0.00 70 1004.2
20260506090635 59 275 1.7 3.5 0.00 0.01 0.00 69 1004.2
20260506090535 59 275 0.9 3.5 0.00 0.01 0.00 69 1004.2
20260506090436 59 297 0.9 3.5 0.00 0.01 0.00 69 1004.1
20260506090332 59 297 0.9 3.5 0.00 0.01 0.00 70 1004.1
20260506090236 59 302 0.9 2.6 0.00 0.01 0.00 70 1004.1
20260506090135 59 302 0.9 2.6 0.00 0.01 0.00 70 1004.1
20260506090036 59 304 1.7 2.6 0.00 0.01 0.00 69 1004.1
20260506085936 59 305 1.7 2.6 0.00 0.01 0.00 69 1004.1
20260506085832 59 305 1.7 2.6 0.00 0.01 0.00 69 1004.0
20260506085731 59 304 0.9 2.6 0.00 0.01 0.00 69 1004.0
20260506085631 59 303 0.9 2.6 0.00 0.01 0.00 69 1004.0
20260506085532 58 303 0.9 2.6 0.00 0.01 0.00 69 1004.0
20260506085432 58 302 0.9 2.6 0.00 0.01 0.00 69 1004.1
20260506085332 58 302 0.9 2.6 0.00 0.01 0.00 69 1004.1
20260506085232 58 302 0.9 2.6 0.00 0.01 0.00 69 1004.1
20260506085132 58 302 0.9 2.6 0.00 0.01 0.00 69 1004.1
20260506085031 58 303 0.9 1.7 0.00 0.01 0.00 69 1004.1
20260506084932 58 71 0.9 2.6 0.00 0.01 0.00 68 1004.2
20260506084832 58 73 0.9 2.6 0.00 0.01 0.00 69 1004.2
20260506084732 58 71 0.9 2.6 0.00 0.01 0.00 69 1004.1
20260506084632 58 71 0.9 2.6 0.00 0.01 0.00 69 1004.2
20260506084532 58 71 0.9 2.6 0.00 0.01 0.00 70 1004.2
20260506084431 58 71 0.9 3.5 0.00 0.01 0.00 71 1004.2
20260506084331 58 71 0.9 3.5 0.00 0.01 0.00 70 1004.1
20260506084232 58 71 0.9 3.5 0.00 0.01 0.00 70 1004.1
20260506084131 58 71 0.9 3.5 0.00 0.01 0.00 70 1004.1
20260506084048 58 71 0.9 3.5 0.00 0.01 0.00 70 1004.1
20260506084044 58 71 0.9 3.5 0.00 0.01 0.00 70 1004.1
20260506084040 58 71 0.9 3.5 0.00 0.01 0.00 71 1004.1
20260506083729 58 71 0.9 3.5 0.00 0.01 0.00 70 1004.2
20260506083629 58 71 0.9 3.5 0.00 0.01 0.00 70 1004.2
20260506083529 58 71 0.9 3.5 0.00 0.01 0.00 72 1004.2
20260506083429 58 74 0.9 3.5 0.00 0.01 0.00 72 1004.2
20260506083329 58 346 0.9 3.5 0.00 0.01 0.00 71 1004.3
20260506083229 58 315 0.9 2.6 0.00 0.01 0.00 72 1004.3
20260506083129 58 315 0.0 1.7 0.00 0.01 0.00 72 1004.3
20260506083029 58 315 0.9 1.7 0.00 0.01 0.00 73 1004.3
20260506082929 58 315 0.9 2.6 0.00 0.01 0.00 72 1004.3
20260506082829 58 315 0.9 2.6 0.00 0.01 0.00 71 1004.3
20260506082729 58 315 0.9 2.6 0.00 0.01 0.00 70 1004.3
20260506082629 58 315 0.9 2.6 0.00 0.01 0.00 70 1004.3
20260506082529 58 315 0.9 2.6 0.00 0.01 0.00 70 1004.2
20260506082429 58 315 0.9 2.6 0.00 0.01 0.00 70 1004.3
20260506082328 58 315 0.9 2.6 0.00 0.01 0.00 70 1004.3
20260506082228 58 315 0.9 2.6 0.00 0.01 0.00 71 1004.3
20260506082129 58 315 1.7 2.6 0.00 0.01 0.00 72 1004.2
20260506082029 58 315 1.7 2.6 0.00 0.01 0.00 72 1004.3
20260506081929 57 315 0.9 2.6 0.00 0.01 0.00 73 1004.3
20260506081829 57 315 0.9 2.6 0.00 0.01 0.00 73 1004.2
20260506081729 57 315 0.9 2.6 0.00 0.01 0.00 74 1004.3
20260506081629 57 325 0.9 2.6 0.00 0.01 0.00 74 1004.2
20260506081551 57 325 0.9 2.6 0.00 0.01 0.00 74 1004.2
20260506081543 57 325 0.9 2.6 0.00 0.01 0.00 74 1004.2
20260506081539 57 325 0.9 2.6 0.00 0.01 0.00 74 1004.2
20260506081228 57 325 0.9 2.6 0.00 0.01 0.00 74 1004.2
20260506081129 57 325 0.9 2.6 0.00 0.01 0.00 74 1004.2
20260506081031 57 323 0.9 2.6 0.00 0.01 0.00 74 1004.2
20260506080929 57 323 0.9 3.5 0.00 0.01 0.00 74 1004.2
20260506080830 57 323 0.9 3.5 0.00 0.01 0.00 74 1004.2
20260506080730 57 323 0.9 3.5 0.00 0.01 0.00 74 1004.2
20260506080629 57 324 0.9 3.5 0.00 0.01 0.00 74 1004.2
20260506080529 57 9 1.7 3.5 0.00 0.01 0.00 74 1004.2
20260506080429 57 9 1.7 3.5 0.00 0.01 0.00 74 1004.2
20260506080330 57 9 0.9 3.5 0.00 0.01 0.00 74 1004.2
20260506080230 56 9 0.9 3.5 0.00 0.01 0.00 74 1004.1
20260506080130 56 9 0.9 3.5 0.00 0.01 0.00 75 1004.1
20260506073521 55 120 0.0 0.9 0.00 0.01 0.00 77 1004.1
20260506073419 55 120 0.0 0.9 0.00 0.01 0.00 77 1004.1
20260506073329 55 119 0.0 0.9 0.00 0.01 0.00 77 1004.1
20260506073319 55 120 0.0 0.9 0.00 0.01 0.00 78 1004.1
20260506073219 55 120 0.0 0.9 0.00 0.01 0.00 78 1004.2
20260506073119 55 120 0.0 0.9 0.00 0.01 0.00 78 1004.2
20260506073100 55 119 0.0 0.9 0.00 0.01 0.00 79 1004.2
20260506073048 55 119 0.0 0.9 0.00 0.01 0.00 78 1004.2
20260506073040 55 119 0.0 0.9 0.00 0.01 0.00 79 1004.2
20260506072819 55 119 0.0 0.9 0.00 0.01 0.00 79 1004.2
20260506072719 55 119 0.0 0.9 0.00 0.01 0.00 80 1004.2
20260506072619 55 119 0.0 0.9 0.00 0.01 0.00 79 1004.3
20260506072517 55 119 0.0 1.7 0.00 0.01 0.00 79 1004.3
20260506072417 55 119 0.0 1.7 0.00 0.01 0.00 79 1004.4
20260506072315 55 119 0.0 1.7 0.00 0.01 0.00 80 1004.4
20260506072216 55 119 0.0 1.7 0.00 0.01 0.00 81 1004.4
20260506072113 54 119 0.0 1.7 0.00 0.01 0.00 81 1004.5
20260506072011 54 119 0.0 1.7 0.00 0.01 0.00 81 1004.5
20260506071911 54 119 0.0 1.7 0.00 0.01 0.00 81 1004.5
20260506071809 54 119 0.0 1.7 0.00 0.01 0.00 80 1004.5
20260506071709 54 119 0.0 1.7 0.00 0.01 0.00 81 1004.5
20260506071608 54 119 0.0 1.7 0.00 0.01 0.00 83 1004.5
20260506071510 54 119 0.0 0.9 0.00 0.01 0.00 82 1004.5
20260506071405 54 119 0.0 0.9 0.00 0.01 0.00 83 1004.5
20260506071303 54 119 0.0 0.9 0.00 0.01 0.00 83 1004.5
20260506071203 54 119 0.0 0.9 0.00 0.01 0.00 82 1004.5
20260506071104 54 119 0.0 0.9 0.00 0.01 0.00 82 1004.5
20260506071100 54 119 0.0 0.9 0.00 0.01 0.00 83 1004.5
20260506071050 54 119 0.0 0.9 0.00 0.01 0.00 81 1004.4
20260506071042 54 119 0.0 0.9 0.00 0.01 0.00 81 1004.4
20260506070801 54 119 0.0 0.9 0.00 0.01 0.00 83 1004.5
20260506070701 54 119 0.0 0.9 0.00 0.01 0.00 83 1004.5
20260506070602 54 119 0.0 0.9 0.00 0.01 0.00 83 1004.4
20260506070506 54 119 0.0 0.9 0.00 0.01 0.00 83 1004.5
20260506070401 54 119 0.0 0.9 0.00 0.01 0.00 83 1004.5
20260506070301 53 119 0.0 0.9 0.00 0.01 0.00 83 1004.4
20260506070201 53 119 0.0 0.9 0.00 0.01 0.00 82 1004.5
20260506062501 52 105 0.0 2.6 0.00 0.01 0.00 85 1004.5
20260506062400 52 105 0.0 2.6 0.00 0.01 0.00 85 1004.5
20260506062300 52 105 0.0 2.6 0.00 0.01 0.00 85 1004.5
20260506062200 51 105 0.0 2.6 0.00 0.01 0.00 86 1004.5
20260506062101 51 105 0.0 2.6 0.00 0.01 0.00 86 1004.5
20260506062001 51 105 0.9 2.6 0.00 0.01 0.00 86 1004.5
20260506061901 51 105 0.9 2.6 0.00 0.01 0.00 86 1004.5
20260506061801 51 105 0.9 2.6 0.00 0.01 0.00 86 1004.5
20260506061701 51 105 0.9 2.6 0.00 0.01 0.00 86 1004.5
20260506061600 51 115 0.9 2.6 0.00 0.01 0.00 87 1004.5
20260506061500 51 115 0.9 2.6 0.00 0.01 0.00 86 1004.5
20260506061404 51 115 0.9 2.6 0.00 0.01 0.00 86 1004.6
20260506061329 51 116 0.9 2.6 0.00 0.01 0.00 86 1004.6
20260506061257 51 117 0.9 2.6 0.00 0.01 0.00 87 1004.6
20260506061155 51 117 0.9 2.6 0.00 0.01 0.00 87 1004.6
20260506061055 51 117 0.9 2.6 0.00 0.01 0.00 87 1004.7
20260506060955 51 117 0.9 2.6 0.00 0.01 0.00 87 1004.7